Time,TemperatureF,DewpointF,PressureIn,WindDirection,WindDirectionDegrees,WindSpeedMPH,WindSpeedGustMPH,Humidity,HourlyPrecipIn,Conditions,Clouds,dailyrainin,SoftwareType,DateUTC
2013-08-08 00:00:00,51.3,35.7,29.97,NW,306,4.0,4.0,55,0.00,,---,0.00,VWS V14.01,2013-08-08 06:00:00,
2013-08-08 00:01:00,51.3,35.7,29.97,NW,306,4.0,5.0,55,0.00,,---,0.00,VWS V14.01,2013-08-08 06:01:00,
2013-08-08 00:02:00,51.3,35.7,29.97,NW,306,3.0,5.0,55,0.00,,---,0.00,VWS V14.01,2013-08-08 06:02:00,
2013-08-08 00:03:00,51.4,35.8,29.97,NW,306,4.0,5.0,55,0.00,,---,0.00,VWS V14.01,2013-08-08 06:03:00,
2013-08-08 00:04:00,51.4,35.8,29.97,NW,306,4.0,5.0,55,0.00,,---,0.00,VWS V14.01,2013-08-08 06:04:00,
2013-08-08 00:05:00,51.4,35.8,29.97,NW,306,2.0,5.0,55,0.00,,---,0.00,VWS V14.01,2013-08-08 06:05:00,
2013-08-08 00:06:00,51.4,35.8,29.97,NW,306,0.0,2.0,55,0.00,,---,0.00,VWS V14.01,2013-08-08 06:06:00,
2013-08-08 00:07:00,51.4,35.3,29.97,NW,306,2.0,3.0,54,0.00,,---,0.00,VWS V14.01,2013-08-08 06:07:00,
2013-08-08 00:08:00,51.5,35.4,29.97,NW,306,1.0,2.0,54,0.00,,---,0.00,VWS V14.01,2013-08-08 06:08:00,
2013-08-08 00:09:00,51.5,35.4,29.97,NW,306,1.0,2.0,54,0.00,,---,0.00,VWS V14.01,2013-08-08 06:09:00,
2013-08-08 00:10:00,51.5,35.9,29.97,NW,306,0.0,1.0,55,0.00,,---,0.00,VWS V14.01,2013-08-08 06:10:00,
2013-08-08 00:11:00,51.6,36.0,29.97,NW,306,0.0,1.0,55,0.00,,---,0.00,VWS V14.01,2013-08-08 06:11:00,
2013-08-08 00:12:00,51.6,36.0,29.97,NW,306,1.0,1.0,55,0.00,,---,0.00,VWS V14.01,2013-08-08 06:12:00,
2013-08-08 00:13:00,51.6,36.4,29.97,NW,306,0.0,1.0,56,0.00,,---,0.00,VWS V14.01,2013-08-08 06:13:00,
2013-08-08 00:14:00,51.6,36.4,29.97,NW,306,0.0,1.0,56,0.00,,---,0.00,VWS V14.01,2013-08-08 06:14:00,
2013-08-08 00:15:00,51.7,36.5,29.97,NW,306,0.0,0.0,56,0.00,,---,0.00,VWS V14.01,2013-08-08 06:15:00,
2013-08-08 00:16:00,51.7,36.5,29.97,NW,306,0.0,0.0,56,0.00,,---,0.00,VWS V14.01,2013-08-08 06:16:00,
2013-08-08 00:17:00,51.7,36.5,29.97,NW,306,0.0,0.0,56,0.00,,---,0.00,VWS V14.01,2013-08-08 06:17:00,
2013-08-08 00:18:00,51.7,36.5,29.97,NW,306,0.0,0.0,56,0.00,,---,0.00,VWS V14.01,2013-08-08 06:18:00,
2013-08-08 00:19:00,51.7,36.5,29.97,NW,306,0.0,0.0,56,0.00,,---,0.00,VWS V14.01,2013-08-08 06:19:00,
2013-08-08 00:20:00,51.7,36.5,29.97,NW,306,0.0,0.0,56,0.00,,---,0.00,VWS V14.01,2013-08-08 06:20:00,
2013-08-08 00:21:00,51.7,36.5,29.97,NW,306,0.0,0.0,56,0.00,,---,0.00,VWS V14.01,2013-08-08 06:21:00,
2013-08-08 00:22:00,51.7,36.1,29.97,NW,306,0.0,0.0,55,0.00,,---,0.00,VWS V14.01,2013-08-08 06:22:00,
2013-08-08 00:23:00,51.7,35.6,29.97,NW,306,0.0,0.0,54,0.00,,---,0.00,VWS V14.01,2013-08-08 06:23:00,
2013-08-08 00:24:00,51.7,35.6,29.97,NW,306,0.0,0.0,54,0.00,,---,0.00,VWS V14.01,2013-08-08 06:24:00,
2013-08-08 00:25:00,51.7,36.1,29.97,NW,306,0.0,0.0,55,0.00,,---,0.00,VWS V14.01,2013-08-08 06:25:00,
2013-08-08 00:26:00,51.7,36.1,29.97,NW,306,0.0,1.0,55,0.00,,---,0.00,VWS V14.01,2013-08-08 06:26:00,
2013-08-08 00:27:00,51.7,36.1,29.97,NW,306,0.0,0.0,55,0.00,,---,0.00,VWS V14.01,2013-08-08 06:27:00,
2013-08-08 00:28:00,51.7,35.6,29.97,NW,306,0.0,0.0,54,0.00,,---,0.00,VWS V14.01,2013-08-08 06:28:00,
2013-08-08 00:29:00,51.7,35.6,29.97,NW,306,0.0,0.0,54,0.00,,---,0.00,VWS V14.01,2013-08-08 06:29:00,
2013-08-08 00:30:00,51.7,35.6,29.97,NW,306,0.0,0.0,54,0.00,,---,0.00,VWS V14.01,2013-08-08 06:30:00,
2013-08-08 00:31:00,51.7,35.1,29.97,NW,306,0.0,0.0,53,0.00,,---,0.00,VWS V14.01,2013-08-08 06:31:00,
2013-08-08 00:32:00,51.8,35.2,29.97,NW,306,0.0,0.0,53,0.00,,---,0.00,VWS V14.01,2013-08-08 06:32:00,
2013-08-08 00:33:00,51.8,35.2,29.97,NW,306,0.0,0.0,53,0.00,,---,0.00,VWS V14.01,2013-08-08 06:33:00,
2013-08-08 00:34:00,51.8,35.2,29.97,NW,306,0.0,0.0,53,0.00,,---,0.00,VWS V14.01,2013-08-08 06:34:00,
2013-08-08 00:35:00,51.9,35.3,29.97,NW,306,0.0,0.0,53,0.00,,---,0.00,VWS V14.01,2013-08-08 06:35:00,
2013-08-08 00:36:00,51.9,35.3,29.97,NW,306,0.0,0.0,53,0.00,,---,0.00,VWS V14.01,2013-08-08 06:36:00,
2013-08-08 00:37:00,52.0,34.9,29.97,NW,306,0.0,0.0,52,0.00,,---,0.00,VWS V14.01,2013-08-08 06:37:00,
2013-08-08 00:38:00,52.0,34.9,29.97,NW,306,0.0,0.0,52,0.00,,---,0.00,VWS V14.01,2013-08-08 06:38:00,
2013-08-08 00:39:00,52.0,34.9,29.97,NW,306,0.0,0.0,52,0.00,,---,0.00,VWS V14.01,2013-08-08 06:39:00,
2013-08-08 00:40:00,52.1,35.0,29.97,NW,306,0.0,0.0,52,0.00,,---,0.00,VWS V14.01,2013-08-08 06:40:00,
2013-08-08 00:41:00,52.1,35.0,29.97,NW,306,0.0,0.0,52,0.00,,---,0.00,VWS V14.01,2013-08-08 06:41:00,
2013-08-08 00:42:00,52.2,35.1,29.97,NW,306,0.0,0.0,52,0.00,,---,0.00,VWS V14.01,2013-08-08 06:42:00,
2013-08-08 00:43:00,52.2,35.1,29.97,NW,306,0.0,0.0,52,0.00,,---,0.00,VWS V14.01,2013-08-08 06:43:00,
2013-08-08 00:44:00,52.2,35.1,29.97,NW,306,0.0,0.0,52,0.00,,---,0.00,VWS V14.01,2013-08-08 06:44:00,
2013-08-08 00:45:00,52.3,35.2,29.97,NW,306,0.0,0.0,52,0.00,,---,0.00,VWS V14.01,2013-08-08 06:45:00,
2013-08-08 00:46:00,52.3,34.7,29.97,NW,306,0.0,0.0,51,0.00,,---,0.00,VWS V14.01,2013-08-08 06:46:00,
2013-08-08 00:47:00,52.3,34.7,29.97,NW,306,0.0,0.0,51,0.00,,---,0.00,VWS V14.01,2013-08-08 06:47:00,
2013-08-08 00:48:00,52.4,34.8,29.97,NW,306,0.0,0.0,51,0.00,,---,0.00,VWS V14.01,2013-08-08 06:48:00,
2013-08-08 00:49:00,52.4,34.8,29.97,NW,306,0.0,0.0,51,0.00,,---,0.00,VWS V14.01,2013-08-08 06:49:00,
2013-08-08 00:50:00,52.4,34.8,29.97,NW,306,0.0,0.0,51,0.00,,---,0.00,VWS V14.01,2013-08-08 06:50:00,
2013-08-08 00:51:00,52.4,34.3,29.97,NW,306,0.0,0.0,50,0.00,,---,0.00,VWS V14.01,2013-08-08 06:51:00,
2013-08-08 00:52:00,52.5,34.4,29.97,NW,306,0.0,0.0,50,0.00,,---,0.00,VWS V14.01,2013-08-08 06:52:00,
2013-08-08 00:53:00,52.5,34.4,29.97,NW,306,0.0,0.0,50,0.00,,---,0.00,VWS V14.01,2013-08-08 06:53:00,
2013-08-08 00:54:00,52.5,34.4,29.97,NW,306,0.0,0.0,50,0.00,,---,0.00,VWS V14.01,2013-08-08 06:54:00,
2013-08-08 00:55:00,52.6,34.5,29.97,NW,306,0.0,0.0,50,0.00,,---,0.00,VWS V14.01,2013-08-08 06:55:00,
2013-08-08 00:56:00,52.6,34.5,29.97,NW,306,0.0,0.0,50,0.00,,---,0.00,VWS V14.01,2013-08-08 06:56:00,
2013-08-08 00:57:00,52.6,34.0,29.97,NW,306,0.0,1.0,49,0.00,,---,0.00,VWS V14.01,2013-08-08 06:57:00,
2013-08-08 00:58:00,52.6,34.0,29.96,NW,306,0.0,1.0,49,0.00,,---,0.00,VWS V14.01,2013-08-08 06:58:00,
2013-08-08 00:59:00,52.6,34.0,29.96,NW,306,0.0,1.0,49,0.00,,---,0.00,VWS V14.01,2013-08-08 06:59:00,
2013-08-08 01:00:00,52.6,34.0,29.96,NW,306,2.0,4.0,49,0.00,,---,0.00,VWS V14.01,2013-08-08 07:00:00,
2013-08-08 01:01:00,52.6,34.0,29.97,NW,306,2.0,2.0,49,0.00,,---,0.00,VWS V14.01,2013-08-08 07:01:00,
2013-08-08 01:02:00,52.7,33.6,29.97,NW,306,2.0,2.0,48,0.00,,---,0.00,VWS V14.01,2013-08-08 07:02:00,
2013-08-08 01:03:00,52.6,34.0,29.96,NW,306,0.0,2.0,49,0.00,,---,0.00,VWS V14.01,2013-08-08 07:03:00,
2013-08-08 01:04:00,52.6,34.0,29.96,NW,306,0.0,2.0,49,0.00,,---,0.00,VWS V14.01,2013-08-08 07:04:00,
2013-08-08 01:05:00,52.7,33.6,29.96,NW,306,2.0,2.0,48,0.00,,---,0.00,VWS V14.01,2013-08-08 07:05:00,
2013-08-08 01:06:00,52.7,33.6,29.97,NW,306,0.0,2.0,48,0.00,,---,0.00,VWS V14.01,2013-08-08 07:06:00,
2013-08-08 01:07:00,52.7,33.6,29.96,NW,306,1.0,2.0,48,0.00,,---,0.00,VWS V14.01,2013-08-08 07:07:00,
2013-08-08 01:08:00,52.7,33.6,29.96,NW,306,2.0,3.0,48,0.00,,---,0.00,VWS V14.01,2013-08-08 07:08:00,
2013-08-08 01:09:00,52.7,33.6,29.96,NW,306,2.0,3.0,48,0.00,,---,0.00,VWS V14.01,2013-08-08 07:09:00,
2013-08-08 01:10:00,52.8,33.7,29.96,NW,306,0.0,2.0,48,0.00,,---,0.00,VWS V14.01,2013-08-08 07:10:00,
2013-08-08 01:11:00,52.8,33.7,29.96,NW,306,2.0,2.0,48,0.00,,---,0.00,VWS V14.01,2013-08-08 07:11:00,
2013-08-08 01:12:00,52.8,33.7,29.96,NW,306,0.0,2.0,48,0.00,,---,0.00,VWS V14.01,2013-08-08 07:12:00,
2013-08-08 01:13:00,52.8,33.7,29.96,NW,306,0.0,1.0,48,0.00,,---,0.00,VWS V14.01,2013-08-08 07:13:00,
2013-08-08 01:14:00,52.8,33.7,29.96,NW,306,0.0,1.0,48,0.00,,---,0.00,VWS V14.01,2013-08-08 07:14:00,
2013-08-08 01:15:00,52.8,33.2,29.96,NW,306,0.0,0.0,47,0.00,,---,0.00,VWS V14.01,2013-08-08 07:15:00,
2013-08-08 01:16:00,52.8,33.2,29.96,NW,306,0.0,1.0,47,0.00,,---,0.00,VWS V14.01,2013-08-08 07:16:00,
2013-08-08 01:17:00,52.8,33.2,29.96,NW,306,0.0,2.0,47,0.00,,---,0.00,VWS V14.01,2013-08-08 07:17:00,
2013-08-08 01:18:00,52.8,33.2,29.96,NW,306,0.0,0.0,47,0.00,,---,0.00,VWS V14.01,2013-08-08 07:18:00,
2013-08-08 01:19:00,52.8,33.2,29.96,NW,306,0.0,0.0,47,0.00,,---,0.00,VWS V14.01,2013-08-08 07:19:00,
2013-08-08 01:20:00,52.8,33.2,29.96,NW,306,1.0,2.0,47,0.00,,---,0.00,VWS V14.01,2013-08-08 07:20:00,
2013-08-08 01:21:00,52.8,33.2,29.96,NW,306,0.0,1.0,47,0.00,,---,0.00,VWS V14.01,2013-08-08 07:21:00,
2013-08-08 01:22:00,52.8,33.2,29.96,NW,306,0.0,0.0,47,0.00,,---,0.00,VWS V14.01,2013-08-08 07:22:00,
2013-08-08 01:23:00,52.7,33.0,29.96,NW,306,0.0,0.0,47,0.00,,---,0.00,VWS V14.01,2013-08-08 07:23:00,
2013-08-08 01:24:00,52.7,33.0,29.96,NW,306,0.0,0.0,47,0.00,,---,0.00,VWS V14.01,2013-08-08 07:24:00,
2013-08-08 01:25:00,52.6,33.0,29.96,NW,306,0.0,1.0,47,0.00,,---,0.00,VWS V14.01,2013-08-08 07:25:00,
2013-08-08 01:26:00,52.6,33.0,29.96,NW,306,0.0,0.0,47,0.00,,---,0.00,VWS V14.01,2013-08-08 07:26:00,
2013-08-08 01:27:00,52.6,33.5,29.97,NW,306,1.0,2.0,48,0.00,,---,0.00,VWS V14.01,2013-08-08 07:27:00,
2013-08-08 01:28:00,52.5,33.4,29.97,NW,306,0.0,2.0,48,0.00,,---,0.00,VWS V14.01,2013-08-08 07:28:00,
2013-08-08 01:29:00,52.5,33.4,29.97,NW,306,0.0,2.0,48,0.00,,---,0.00,VWS V14.01,2013-08-08 07:29:00,
2013-08-08 01:30:00,52.4,32.8,29.97,NW,306,0.0,1.0,47,0.00,,---,0.00,VWS V14.01,2013-08-08 07:30:00,
2013-08-08 01:31:00,52.4,32.8,29.97,NW,306,0.0,0.0,47,0.00,,---,0.00,VWS V14.01,2013-08-08 07:31:00,
2013-08-08 01:32:00,52.4,32.8,29.97,NW,306,0.0,0.0,47,0.00,,---,0.00,VWS V14.01,2013-08-08 07:32:00,
2013-08-08 01:33:00,52.4,32.8,29.97,NW,306,0.0,0.0,47,0.00,,---,0.00,VWS V14.01,2013-08-08 07:33:00,
2013-08-08 01:34:00,52.4,32.8,29.97,NW,306,0.0,0.0,47,0.00,,---,0.00,VWS V14.01,2013-08-08 07:34:00,
2013-08-08 01:35:00,52.4,32.8,29.97,NW,306,0.0,0.0,47,0.00,,---,0.00,VWS V14.01,2013-08-08 07:35:00,
2013-08-08 01:36:00,52.3,32.2,29.97,NW,306,1.0,1.0,46,0.00,,---,0.00,VWS V14.01,2013-08-08 07:36:00,
2013-08-08 01:37:00,52.3,32.2,29.97,NW,306,1.0,1.0,46,0.00,,---,0.00,VWS V14.01,2013-08-08 07:37:00,
2013-08-08 01:38:00,52.3,32.2,29.97,NW,306,0.0,2.0,46,0.00,,---,0.00,VWS V14.01,2013-08-08 07:38:00,
2013-08-08 01:39:00,52.3,32.2,29.97,NW,306,0.0,2.0,46,0.00,,---,0.00,VWS V14.01,2013-08-08 07:39:00,
2013-08-08 01:40:00,52.3,31.6,29.97,NW,306,0.0,1.0,45,0.00,,---,0.00,VWS V14.01,2013-08-08 07:40:00,
2013-08-08 01:41:00,52.3,31.6,29.97,NW,306,0.0,1.0,45,0.00,,---,0.00,VWS V14.01,2013-08-08 07:41:00,
2013-08-08 01:42:00,52.3,31.6,29.97,NW,306,0.0,0.0,45,0.00,,---,0.00,VWS V14.01,2013-08-08 07:42:00,
2013-08-08 01:43:00,52.2,31.5,29.96,NW,306,0.0,0.0,45,0.00,,---,0.00,VWS V14.01,2013-08-08 07:43:00,
2013-08-08 01:44:00,52.2,31.5,29.96,NW,306,0.0,0.0,45,0.00,,---,0.00,VWS V14.01,2013-08-08 07:44:00,
2013-08-08 01:45:00,52.2,31.5,29.97,NW,306,0.0,0.0,45,0.00,,---,0.00,VWS V14.01,2013-08-08 07:45:00,
2013-08-08 01:46:00,52.2,31.5,29.97,NW,306,0.0,1.0,45,0.00,,---,0.00,VWS V14.01,2013-08-08 07:46:00,
2013-08-08 01:47:00,52.2,31.5,29.97,NW,306,4.0,4.0,45,0.00,,---,0.00,VWS V14.01,2013-08-08 07:47:00,
2013-08-08 01:48:00,52.1,31.4,29.97,North,349,4.0,5.0,45,0.00,,---,0.00,VWS V14.01,2013-08-08 07:48:00,
2013-08-08 01:49:00,52.1,31.4,29.97,North,349,4.0,5.0,45,0.00,,---,0.00,VWS V14.01,2013-08-08 07:49:00,
2013-08-08 01:50:00,52.1,32.0,29.97,NNW,344,7.0,7.0,46,0.00,,---,0.00,VWS V14.01,2013-08-08 07:50:00,
2013-08-08 01:51:00,52.1,32.0,29.97,NNE,18,4.0,7.0,46,0.00,,---,0.00,VWS V14.01,2013-08-08 07:51:00,
2013-08-08 01:52:00,52.1,32.0,29.97,North,355,4.0,7.0,46,0.00,,---,0.00,VWS V14.01,2013-08-08 07:52:00,
2013-08-08 01:53:00,52.1,32.0,29.97,NNW,348,4.0,6.0,46,0.00,,---,0.00,VWS V14.01,2013-08-08 07:53:00,
2013-08-08 01:54:00,52.1,32.0,29.97,NNW,348,4.0,6.0,46,0.00,,---,0.00,VWS V14.01,2013-08-08 07:54:00,
2013-08-08 01:55:00,52.3,32.2,29.96,North,5,4.0,5.0,46,0.00,,---,0.00,VWS V14.01,2013-08-08 07:55:00,
2013-08-08 01:56:00,52.3,32.2,29.96,North,355,6.0,7.0,46,0.00,,---,0.00,VWS V14.01,2013-08-08 07:56:00,
2013-08-08 01:57:00,52.4,32.2,29.97,North,350,7.0,8.0,46,0.00,,---,0.00,VWS V14.01,2013-08-08 07:57:00,
2013-08-08 01:58:00,52.4,32.2,29.96,North,355,4.0,7.0,46,0.00,,---,0.00,VWS V14.01,2013-08-08 07:58:00,
2013-08-08 01:59:00,52.4,32.2,29.96,North,355,4.0,7.0,46,0.00,,---,0.00,VWS V14.01,2013-08-08 07:59:00,
2013-08-08 02:00:00,52.5,33.9,29.96,North,5,6.0,8.0,49,0.00,,---,0.00,VWS V14.01,2013-08-08 08:00:00,
2013-08-08 02:01:00,52.6,33.0,29.96,NNW,347,4.0,8.0,47,0.00,,---,0.00,VWS V14.01,2013-08-08 08:01:00,
2013-08-08 02:02:00,52.6,33.5,29.96,NNW,332,5.0,8.0,48,0.00,,---,0.00,VWS V14.01,2013-08-08 08:02:00,
2013-08-08 02:03:00,52.6,33.5,29.96,North,350,4.0,7.0,48,0.00,,---,0.00,VWS V14.01,2013-08-08 08:03:00,
2013-08-08 02:04:00,52.6,33.5,29.96,North,350,4.0,7.0,48,0.00,,---,0.00,VWS V14.01,2013-08-08 08:04:00,
2013-08-08 02:05:00,52.6,34.5,29.96,NNW,347,4.0,5.0,50,0.00,,---,0.00,VWS V14.01,2013-08-08 08:05:00,
2013-08-08 02:06:00,52.6,34.5,29.96,NNW,345,5.0,5.0,50,0.00,,---,0.00,VWS V14.01,2013-08-08 08:06:00,
2013-08-08 02:07:00,52.6,35.0,29.97,North,5,7.0,7.0,51,0.00,,---,0.00,VWS V14.01,2013-08-08 08:07:00,
2013-08-08 02:08:00,52.6,35.5,29.97,North,355,4.0,7.0,52,0.00,,---,0.00,VWS V14.01,2013-08-08 08:08:00,
2013-08-08 02:09:00,52.6,35.5,29.97,North,355,4.0,7.0,52,0.00,,---,0.00,VWS V14.01,2013-08-08 08:09:00,
2013-08-08 02:10:00,52.5,35.9,29.97,North,360,4.0,5.0,53,0.00,,---,0.00,VWS V14.01,2013-08-08 08:10:00,
2013-08-08 02:11:00,52.5,36.3,29.96,North,360,5.0,5.0,54,0.00,,---,0.00,VWS V14.01,2013-08-08 08:11:00,
2013-08-08 02:12:00,52.5,36.3,29.97,North,360,4.0,5.0,54,0.00,,---,0.00,VWS V14.01,2013-08-08 08:12:00,
2013-08-08 02:13:00,52.4,36.7,29.97,North,5,4.0,5.0,55,0.00,,---,0.00,VWS V14.01,2013-08-08 08:13:00,
2013-08-08 02:14:00,52.4,36.7,29.97,North,5,4.0,5.0,55,0.00,,---,0.00,VWS V14.01,2013-08-08 08:14:00,
2013-08-08 02:15:00,52.5,36.8,29.97,North,5,0.0,3.0,55,0.00,,---,0.00,VWS V14.01,2013-08-08 08:15:00,
2013-08-08 02:16:00,52.5,36.8,29.97,North,5,1.0,2.0,55,0.00,,---,0.00,VWS V14.01,2013-08-08 08:16:00,
2013-08-08 02:17:00,52.5,36.8,29.96,North,9,4.0,5.0,55,0.00,,---,0.00,VWS V14.01,2013-08-08 08:17:00,
2013-08-08 02:18:00,52.5,36.8,29.96,North,9,0.0,4.0,55,0.00,,---,0.00,VWS V14.01,2013-08-08 08:18:00,
2013-08-08 02:19:00,52.5,36.8,29.96,North,9,0.0,4.0,55,0.00,,---,0.00,VWS V14.01,2013-08-08 08:19:00,
2013-08-08 02:20:00,52.4,37.2,29.96,North,9,2.0,2.0,56,0.00,,---,0.00,VWS V14.01,2013-08-08 08:20:00,
2013-08-08 02:21:00,52.4,37.2,29.96,North,9,4.0,4.0,56,0.00,,---,0.00,VWS V14.01,2013-08-08 08:21:00,
2013-08-08 02:22:00,52.3,37.1,29.96,North,9,0.0,4.0,56,0.00,,---,0.00,VWS V14.01,2013-08-08 08:22:00,
2013-08-08 02:23:00,52.3,37.1,29.96,North,9,0.0,1.0,56,0.00,,---,0.00,VWS V14.01,2013-08-08 08:23:00,
2013-08-08 02:24:00,52.3,37.1,29.96,North,9,0.0,1.0,56,0.00,,---,0.00,VWS V14.01,2013-08-08 08:24:00,
2013-08-08 02:25:00,52.1,36.9,29.96,North,9,0.0,2.0,56,0.00,,---,0.00,VWS V14.01,2013-08-08 08:25:00,
2013-08-08 02:26:00,52.0,36.8,29.96,North,9,0.0,0.0,56,0.00,,---,0.00,VWS V14.01,2013-08-08 08:26:00,
2013-08-08 02:27:00,51.9,36.7,29.96,North,9,1.0,1.0,56,0.00,,---,0.00,VWS V14.01,2013-08-08 08:27:00,
2013-08-08 02:28:00,51.8,37.1,29.96,North,9,0.0,3.0,57,0.00,,---,0.00,VWS V14.01,2013-08-08 08:28:00,
2013-08-08 02:29:00,51.8,37.1,29.96,North,9,0.0,3.0,57,0.00,,---,0.00,VWS V14.01,2013-08-08 08:29:00,
2013-08-08 02:30:00,51.6,37.3,29.96,North,9,0.0,1.0,58,0.00,,---,0.00,VWS V14.01,2013-08-08 08:30:00,
2013-08-08 02:31:00,51.5,37.2,29.96,North,9,4.0,4.0,58,0.00,,---,0.00,VWS V14.01,2013-08-08 08:31:00,
2013-08-08 02:32:00,51.4,37.1,29.96,North,9,1.0,4.0,58,0.00,,---,0.00,VWS V14.01,2013-08-08 08:32:00,
2013-08-08 02:33:00,51.3,37.0,29.96,North,9,5.0,5.0,58,0.00,,---,0.00,VWS V14.01,2013-08-08 08:33:00,
2013-08-08 02:34:00,51.3,37.0,29.96,North,9,5.0,5.0,58,0.00,,---,0.00,VWS V14.01,2013-08-08 08:34:00,
2013-08-08 02:35:00,51.2,37.4,29.96,North,9,5.0,5.0,59,0.00,,---,0.00,VWS V14.01,2013-08-08 08:35:00,
2013-08-08 02:36:00,51.1,37.3,29.96,North,5,4.0,6.0,59,0.00,,---,0.00,VWS V14.01,2013-08-08 08:36:00,
2013-08-08 02:37:00,51.0,37.2,29.96,North,5,2.0,4.0,59,0.00,,---,0.00,VWS V14.01,2013-08-08 08:37:00,
2013-08-08 02:38:00,51.0,37.6,29.96,North,350,5.0,6.0,60,0.00,,---,0.00,VWS V14.01,2013-08-08 08:38:00,
2013-08-08 02:39:00,51.0,37.6,29.96,North,350,5.0,6.0,60,0.00,,---,0.00,VWS V14.01,2013-08-08 08:39:00,
2013-08-08 02:40:00,50.9,37.9,29.96,North,355,2.0,5.0,61,0.00,,---,0.00,VWS V14.01,2013-08-08 08:40:00,
2013-08-08 02:41:00,50.9,37.9,29.96,North,355,0.0,3.0,61,0.00,,---,0.00,VWS V14.01,2013-08-08 08:41:00,
2013-08-08 02:42:00,50.9,37.9,29.96,North,355,4.0,5.0,61,0.00,,---,0.00,VWS V14.01,2013-08-08 08:42:00,
2013-08-08 02:43:00,50.8,37.8,29.96,North,355,1.0,5.0,61,0.00,,---,0.00,VWS V14.01,2013-08-08 08:43:00,
2013-08-08 02:44:00,50.8,37.8,29.96,North,355,1.0,5.0,61,0.00,,---,0.00,VWS V14.01,2013-08-08 08:44:00,
2013-08-08 02:45:00,50.8,37.8,29.96,North,360,2.0,2.0,61,0.00,,---,0.00,VWS V14.01,2013-08-08 08:45:00,
2013-08-08 02:46:00,50.8,37.8,29.96,North,360,1.0,2.0,61,0.00,,---,0.00,VWS V14.01,2013-08-08 08:46:00,
2013-08-08 02:47:00,50.8,37.8,29.96,North,360,0.0,2.0,61,0.00,,---,0.00,VWS V14.01,2013-08-08 08:47:00,
2013-08-08 02:48:00,50.8,37.8,29.96,North,360,1.0,1.0,61,0.00,,---,0.00,VWS V14.01,2013-08-08 08:48:00,
2013-08-08 02:49:00,50.8,37.8,29.96,North,360,1.0,1.0,61,0.00,,---,0.00,VWS V14.01,2013-08-08 08:49:00,
2013-08-08 02:50:00,50.7,38.2,29.96,North,360,1.0,1.0,62,0.00,,---,0.00,VWS V14.01,2013-08-08 08:50:00,
2013-08-08 02:51:00,50.7,38.2,29.96,North,360,3.0,3.0,62,0.00,,---,0.00,VWS V14.01,2013-08-08 08:51:00,
2013-08-08 02:52:00,50.7,37.8,29.96,North,360,2.0,4.0,61,0.00,,---,0.00,VWS V14.01,2013-08-08 08:52:00,
2013-08-08 02:53:00,50.6,38.1,29.96,North,360,2.0,3.0,62,0.00,,---,0.00,VWS V14.01,2013-08-08 08:53:00,
2013-08-08 02:54:00,50.6,38.1,29.96,North,360,2.0,3.0,62,0.00,,---,0.00,VWS V14.01,2013-08-08 08:54:00,
2013-08-08 02:55:00,50.6,38.1,29.96,North,360,4.0,4.0,62,0.00,,---,0.00,VWS V14.01,2013-08-08 08:55:00,
2013-08-08 02:56:00,50.6,38.1,29.96,North,360,1.0,4.0,62,0.00,,---,0.00,VWS V14.01,2013-08-08 08:56:00,
2013-08-08 02:57:00,50.6,38.1,29.96,North,360,0.0,1.0,62,0.00,,---,0.00,VWS V14.01,2013-08-08 08:57:00,
2013-08-08 02:58:00,50.5,38.0,29.96,North,360,0.0,1.0,62,0.00,,---,0.00,VWS V14.01,2013-08-08 08:58:00,
2013-08-08 02:59:00,50.5,38.0,29.96,North,360,0.0,1.0,62,0.00,,---,0.00,VWS V14.01,2013-08-08 08:59:00,
2013-08-08 03:00:00,50.4,37.9,29.96,North,360,2.0,3.0,62,0.00,,---,0.00,VWS V14.01,2013-08-08 09:00:00,
2013-08-08 03:01:00,50.3,37.8,29.96,North,360,1.0,2.0,62,0.00,,---,0.00,VWS V14.01,2013-08-08 09:01:00,
2013-08-08 03:02:00,50.3,38.2,29.96,North,360,0.0,1.0,63,0.00,,---,0.00,VWS V14.01,2013-08-08 09:02:00,
2013-08-08 03:03:00,50.2,38.1,29.96,North,360,1.0,2.0,63,0.00,,---,0.00,VWS V14.01,2013-08-08 09:03:00,
2013-08-08 03:04:00,50.2,38.1,29.96,North,360,1.0,2.0,63,0.00,,---,0.00,VWS V14.01,2013-08-08 09:04:00,
2013-08-08 03:05:00,50.0,37.9,29.96,North,360,0.0,0.0,63,0.00,,---,0.00,VWS V14.01,2013-08-08 09:05:00,
2013-08-08 03:06:00,49.9,37.4,29.96,North,360,0.0,0.0,62,0.00,,---,0.00,VWS V14.01,2013-08-08 09:06:00,
2013-08-08 03:07:00,49.7,37.2,29.96,North,360,0.0,2.0,62,0.00,,---,0.00,VWS V14.01,2013-08-08 09:07:00,
2013-08-08 03:08:00,49.7,37.2,29.96,North,360,0.0,0.0,62,0.00,,---,0.00,VWS V14.01,2013-08-08 09:08:00,
2013-08-08 03:09:00,49.7,37.2,29.96,North,360,0.0,0.0,62,0.00,,---,0.00,VWS V14.01,2013-08-08 09:09:00,
2013-08-08 03:10:00,49.6,36.7,29.96,North,360,0.0,0.0,61,0.00,,---,0.00,VWS V14.01,2013-08-08 09:10:00,
2013-08-08 03:11:00,49.6,36.7,29.96,North,360,0.0,0.0,61,0.00,,---,0.00,VWS V14.01,2013-08-08 09:11:00,
2013-08-08 03:12:00,49.5,36.6,29.96,North,360,1.0,1.0,61,0.00,,---,0.00,VWS V14.01,2013-08-08 09:12:00,
2013-08-08 03:13:00,49.5,36.6,29.96,North,360,0.0,1.0,61,0.00,,---,0.00,VWS V14.01,2013-08-08 09:13:00,
2013-08-08 03:14:00,49.5,36.6,29.96,North,360,0.0,1.0,61,0.00,,---,0.00,VWS V14.01,2013-08-08 09:14:00,
2013-08-08 03:15:00,49.5,35.8,29.97,North,360,2.0,4.0,59,0.00,,---,0.00,VWS V14.01,2013-08-08 09:15:00,
2013-08-08 03:16:00,49.4,35.7,29.97,North,360,0.0,2.0,59,0.00,,---,0.00,VWS V14.01,2013-08-08 09:16:00,
2013-08-08 03:17:00,49.4,35.7,29.97,North,360,0.0,1.0,59,0.00,,---,0.00,VWS V14.01,2013-08-08 09:17:00,
2013-08-08 03:18:00,49.5,35.8,29.97,North,360,1.0,2.0,59,0.00,,---,0.00,VWS V14.01,2013-08-08 09:18:00,
2013-08-08 03:19:00,49.5,35.8,29.97,North,360,1.0,2.0,59,0.00,,---,0.00,VWS V14.01,2013-08-08 09:19:00,
2013-08-08 03:20:00,49.5,36.6,29.96,North,360,0.0,1.0,61,0.00,,---,0.00,VWS V14.01,2013-08-08 09:20:00,
2013-08-08 03:21:00,49.5,36.6,29.96,North,360,1.0,2.0,61,0.00,,---,0.00,VWS V14.01,2013-08-08 09:21:00,
2013-08-08 03:22:00,49.5,37.0,29.96,North,360,1.0,3.0,62,0.00,,---,0.00,VWS V14.01,2013-08-08 09:22:00,
2013-08-08 03:23:00,49.6,37.1,29.96,North,360,2.0,2.0,62,0.00,,---,0.00,VWS V14.01,2013-08-08 09:23:00,
2013-08-08 03:24:00,49.6,37.1,29.96,North,360,2.0,2.0,62,0.00,,---,0.00,VWS V14.01,2013-08-08 09:24:00,
2013-08-08 03:25:00,49.6,37.5,29.96,North,360,0.0,4.0,63,0.00,,---,0.00,VWS V14.01,2013-08-08 09:25:00,
2013-08-08 03:26:00,49.6,37.5,29.96,North,360,2.0,3.0,63,0.00,,---,0.00,VWS V14.01,2013-08-08 09:26:00,
2013-08-08 03:27:00,49.6,37.1,29.96,North,360,0.0,3.0,62,0.00,,---,0.00,VWS V14.01,2013-08-08 09:27:00,
2013-08-08 03:28:00,49.6,37.1,29.96,North,360,2.0,5.0,62,0.00,,---,0.00,VWS V14.01,2013-08-08 09:28:00,
2013-08-08 03:29:00,49.6,37.1,29.96,North,360,2.0,5.0,62,0.00,,---,0.00,VWS V14.01,2013-08-08 09:29:00,
2013-08-08 03:30:00,49.6,36.7,29.96,North,360,1.0,4.0,61,0.00,,---,0.00,VWS V14.01,2013-08-08 09:30:00,
2013-08-08 03:31:00,49.6,36.3,29.96,North,360,0.0,1.0,60,0.00,,---,0.00,VWS V14.01,2013-08-08 09:31:00,
2013-08-08 03:32:00,49.7,36.4,29.96,North,360,0.0,1.0,60,0.00,,---,0.00,VWS V14.01,2013-08-08 09:32:00,
2013-08-08 03:33:00,49.7,36.4,29.96,North,360,0.0,0.0,60,0.00,,---,0.00,VWS V14.01,2013-08-08 09:33:00,
2013-08-08 03:34:00,49.7,36.4,29.96,North,360,0.0,0.0,60,0.00,,---,0.00,VWS V14.01,2013-08-08 09:34:00,
2013-08-08 03:35:00,49.6,35.9,29.96,North,360,1.0,1.0,59,0.00,,---,0.00,VWS V14.01,2013-08-08 09:35:00,
2013-08-08 03:36:00,49.6,35.9,29.96,North,360,0.0,1.0,59,0.00,,---,0.00,VWS V14.01,2013-08-08 09:36:00,
2013-08-08 03:37:00,49.6,35.9,29.96,North,360,0.0,0.0,59,0.00,,---,0.00,VWS V14.01,2013-08-08 09:37:00,
2013-08-08 03:38:00,49.7,36.0,29.96,North,360,0.0,0.0,59,0.00,,---,0.00,VWS V14.01,2013-08-08 09:38:00,
2013-08-08 03:39:00,49.7,36.0,29.96,North,360,0.0,0.0,59,0.00,,---,0.00,VWS V14.01,2013-08-08 09:39:00,
2013-08-08 03:40:00,49.7,35.5,29.96,North,360,0.0,0.0,58,0.00,,---,0.00,VWS V14.01,2013-08-08 09:40:00,
2013-08-08 03:41:00,49.7,35.5,29.96,North,360,0.0,0.0,58,0.00,,---,0.00,VWS V14.01,2013-08-08 09:41:00,
2013-08-08 03:42:00,49.7,35.5,29.96,North,360,0.0,0.0,58,0.00,,---,0.00,VWS V14.01,2013-08-08 09:42:00,
2013-08-08 03:43:00,49.8,35.6,29.96,North,360,0.0,1.0,58,0.00,,---,0.00,VWS V14.01,2013-08-08 09:43:00,
2013-08-08 03:44:00,49.8,35.6,29.96,North,360,0.0,1.0,58,0.00,,---,0.00,VWS V14.01,2013-08-08 09:44:00,
2013-08-08 03:45:00,49.7,35.5,29.96,North,360,1.0,1.0,58,0.00,,---,0.00,VWS V14.01,2013-08-08 09:45:00,
2013-08-08 03:46:00,49.7,35.5,29.96,North,360,0.0,1.0,58,0.00,,---,0.00,VWS V14.01,2013-08-08 09:46:00,
2013-08-08 03:47:00,49.7,35.5,29.96,North,360,0.0,0.0,58,0.00,,---,0.00,VWS V14.01,2013-08-08 09:47:00,
2013-08-08 03:48:00,49.7,35.5,29.96,North,360,0.0,0.0,58,0.00,,---,0.00,VWS V14.01,2013-08-08 09:48:00,
2013-08-08 03:49:00,49.7,35.5,29.96,North,360,0.0,0.0,58,0.00,,---,0.00,VWS V14.01,2013-08-08 09:49:00,
2013-08-08 03:50:00,49.6,35.0,29.96,North,360,2.0,2.0,57,0.00,,---,0.00,VWS V14.01,2013-08-08 09:50:00,
2013-08-08 03:51:00,49.6,35.0,29.96,North,360,1.0,2.0,57,0.00,,---,0.00,VWS V14.01,2013-08-08 09:51:00,
2013-08-08 03:52:00,49.6,35.0,29.96,North,360,2.0,2.0,57,0.00,,---,0.00,VWS V14.01,2013-08-08 09:52:00,
2013-08-08 03:53:00,49.6,35.0,29.96,North,360,2.0,4.0,57,0.00,,---,0.00,VWS V14.01,2013-08-08 09:53:00,
2013-08-08 03:54:00,49.6,35.0,29.96,North,360,2.0,4.0,57,0.00,,---,0.00,VWS V14.01,2013-08-08 09:54:00,
2013-08-08 03:55:00,49.6,35.0,29.96,North,360,0.0,1.0,57,0.00,,---,0.00,VWS V14.01,2013-08-08 09:55:00,
2013-08-08 03:56:00,49.5,34.9,29.96,North,360,0.0,1.0,57,0.00,,---,0.00,VWS V14.01,2013-08-08 09:56:00,
2013-08-08 03:57:00,49.5,34.9,29.96,North,360,1.0,2.0,57,0.00,,---,0.00,VWS V14.01,2013-08-08 09:57:00,
2013-08-08 03:58:00,49.4,34.8,29.97,North,360,0.0,1.0,57,0.00,,---,0.00,VWS V14.01,2013-08-08 09:58:00,
2013-08-08 03:59:00,49.4,34.8,29.97,North,360,0.0,1.0,57,0.00,,---,0.00,VWS V14.01,2013-08-08 09:59:00,
2013-08-08 04:00:00,49.3,34.3,29.96,North,360,1.0,1.0,56,0.00,,---,0.00,VWS V14.01,2013-08-08 10:00:00,
2013-08-08 04:01:00,49.2,34.2,29.97,North,360,2.0,2.0,56,0.00,,---,0.00,VWS V14.01,2013-08-08 10:01:00,
2013-08-08 04:02:00,49.2,34.2,29.97,North,360,1.0,2.0,56,0.00,,---,0.00,VWS V14.01,2013-08-08 10:02:00,
2013-08-08 04:03:00,49.1,34.1,29.97,North,360,0.0,1.0,56,0.00,,---,0.00,VWS V14.01,2013-08-08 10:03:00,
2013-08-08 04:04:00,49.1,34.1,29.97,North,360,0.0,1.0,56,0.00,,---,0.00,VWS V14.01,2013-08-08 10:04:00,
2013-08-08 04:05:00,49.0,34.0,29.97,North,360,1.0,3.0,56,0.00,,---,0.00,VWS V14.01,2013-08-08 10:05:00,
2013-08-08 04:06:00,49.0,34.9,29.97,North,355,2.0,5.0,58,0.00,,---,0.00,VWS V14.01,2013-08-08 10:06:00,
2013-08-08 04:07:00,48.9,34.8,29.97,North,355,3.0,4.0,58,0.00,,---,0.00,VWS V14.01,2013-08-08 10:07:00,
2013-08-08 04:08:00,48.9,34.8,29.97,North,360,3.0,4.0,58,0.00,,---,0.00,VWS V14.01,2013-08-08 10:08:00,
2013-08-08 04:09:00,48.9,34.8,29.97,North,360,3.0,4.0,58,0.00,,---,0.00,VWS V14.01,2013-08-08 10:09:00,
2013-08-08 04:10:00,48.9,34.8,29.97,North,5,2.0,5.0,58,0.00,,---,0.00,VWS V14.01,2013-08-08 10:10:00,
2013-08-08 04:11:00,48.9,34.8,29.97,North,5,1.0,4.0,58,0.00,,---,0.00,VWS V14.01,2013-08-08 10:11:00,
2013-08-08 04:12:00,48.9,34.8,29.97,North,5,2.0,5.0,58,0.00,,---,0.00,VWS V14.01,2013-08-08 10:12:00,
2013-08-08 04:13:00,48.9,34.3,29.97,NNW,348,1.0,6.0,57,0.00,,---,0.00,VWS V14.01,2013-08-08 10:13:00,
2013-08-08 04:14:00,48.9,34.3,29.97,NNW,348,1.0,6.0,57,0.00,,---,0.00,VWS V14.01,2013-08-08 10:14:00,
2013-08-08 04:15:00,48.9,34.3,29.97,NNW,346,0.0,4.0,57,0.00,,---,0.00,VWS V14.01,2013-08-08 10:15:00,
2013-08-08 04:16:00,49.0,34.5,29.97,North,355,0.0,5.0,57,0.00,,---,0.00,VWS V14.01,2013-08-08 10:16:00,
2013-08-08 04:17:00,49.0,34.5,29.97,North,355,6.0,6.0,57,0.00,,---,0.00,VWS V14.01,2013-08-08 10:17:00,
2013-08-08 04:18:00,49.0,34.5,29.97,NNW,348,4.0,7.0,57,0.00,,---,0.00,VWS V14.01,2013-08-08 10:18:00,
2013-08-08 04:19:00,49.0,34.5,29.97,NNW,348,4.0,7.0,57,0.00,,---,0.00,VWS V14.01,2013-08-08 10:19:00,
2013-08-08 04:20:00,49.1,34.1,29.97,NNW,348,3.0,6.0,56,0.00,,---,0.00,VWS V14.01,2013-08-08 10:20:00,
2013-08-08 04:21:00,49.1,33.7,29.97,NNW,344,1.0,6.0,55,0.00,,---,0.00,VWS V14.01,2013-08-08 10:21:00,
2013-08-08 04:22:00,49.2,33.7,29.97,North,360,5.0,6.0,55,0.00,,---,0.00,VWS V14.01,2013-08-08 10:22:00,
2013-08-08 04:23:00,49.2,33.7,29.97,NNW,348,6.0,7.0,55,0.00,,---,0.00,VWS V14.01,2013-08-08 10:23:00,
2013-08-08 04:24:00,49.2,33.7,29.97,NNW,348,6.0,7.0,55,0.00,,---,0.00,VWS V14.01,2013-08-08 10:24:00,
2013-08-08 04:25:00,49.4,33.9,29.97,NNW,342,2.0,5.0,55,0.00,,---,0.00,VWS V14.01,2013-08-08 10:25:00,
2013-08-08 04:26:00,49.4,33.5,29.97,NNW,342,4.0,5.0,54,0.00,,---,0.00,VWS V14.01,2013-08-08 10:26:00,
2013-08-08 04:27:00,49.5,33.6,29.97,NNW,342,4.0,5.0,54,0.00,,---,0.00,VWS V14.01,2013-08-08 10:27:00,
2013-08-08 04:28:00,49.6,33.7,29.97,NNW,342,0.0,4.0,54,0.00,,---,0.00,VWS V14.01,2013-08-08 10:28:00,
2013-08-08 04:29:00,49.6,33.7,29.97,NNW,342,0.0,4.0,54,0.00,,---,0.00,VWS V14.01,2013-08-08 10:29:00,
2013-08-08 04:30:00,49.7,34.2,29.97,NNW,342,1.0,2.0,55,0.00,,---,0.00,VWS V14.01,2013-08-08 10:30:00,
2013-08-08 04:31:00,49.7,33.8,29.97,NNW,342,0.0,1.0,54,0.00,,---,0.00,VWS V14.01,2013-08-08 10:31:00,
2013-08-08 04:32:00,49.8,33.8,29.97,NNW,342,0.0,0.0,54,0.00,,---,0.00,VWS V14.01,2013-08-08 10:32:00,
2013-08-08 04:33:00,49.8,33.8,29.97,NNW,342,1.0,2.0,54,0.00,,---,0.00,VWS V14.01,2013-08-08 10:33:00,
2013-08-08 04:34:00,49.8,33.8,29.97,NNW,342,1.0,2.0,54,0.00,,---,0.00,VWS V14.01,2013-08-08 10:34:00,
2013-08-08 04:35:00,49.9,33.9,29.97,NNW,342,0.0,0.0,54,0.00,,---,0.00,VWS V14.01,2013-08-08 10:35:00,
2013-08-08 04:36:00,49.9,33.9,29.97,NNW,342,0.0,0.0,54,0.00,,---,0.00,VWS V14.01,2013-08-08 10:36:00,
2013-08-08 04:37:00,49.9,33.9,29.98,NNW,342,0.0,1.0,54,0.00,,---,0.00,VWS V14.01,2013-08-08 10:37:00,
2013-08-08 04:38:00,49.9,33.9,29.97,NNW,342,0.0,0.0,54,0.00,,---,0.00,VWS V14.01,2013-08-08 10:38:00,
2013-08-08 04:39:00,49.9,33.9,29.97,NNW,342,0.0,0.0,54,0.00,,---,0.00,VWS V14.01,2013-08-08 10:39:00,
2013-08-08 04:40:00,49.9,33.9,29.97,NNW,342,2.0,5.0,54,0.00,,---,0.00,VWS V14.01,2013-08-08 10:40:00,
2013-08-08 04:41:00,49.8,33.8,29.97,NNW,342,0.0,3.0,54,0.00,,---,0.00,VWS V14.01,2013-08-08 10:41:00,
2013-08-08 04:42:00,49.8,33.8,29.97,NNW,342,4.0,4.0,54,0.00,,---,0.00,VWS V14.01,2013-08-08 10:42:00,
2013-08-08 04:43:00,49.9,33.9,29.98,NNW,342,3.0,4.0,54,0.00,,---,0.00,VWS V14.01,2013-08-08 10:43:00,
2013-08-08 04:44:00,49.9,33.9,29.98,NNW,342,3.0,4.0,54,0.00,,---,0.00,VWS V14.01,2013-08-08 10:44:00,
2013-08-08 04:45:00,49.9,34.4,29.97,North,360,1.0,4.0,55,0.00,,---,0.00,VWS V14.01,2013-08-08 10:45:00,
2013-08-08 04:46:00,50.0,34.5,29.98,North,360,0.0,2.0,55,0.00,,---,0.00,VWS V14.01,2013-08-08 10:46:00,
2013-08-08 04:47:00,50.0,34.5,29.98,North,360,0.0,1.0,55,0.00,,---,0.00,VWS V14.01,2013-08-08 10:47:00,
2013-08-08 04:48:00,50.1,35.0,29.98,North,360,1.0,1.0,56,0.00,,---,0.00,VWS V14.01,2013-08-08 10:48:00,
2013-08-08 04:49:00,50.1,35.0,29.98,North,360,1.0,1.0,56,0.00,,---,0.00,VWS V14.01,2013-08-08 10:49:00,
2013-08-08 04:50:00,50.2,35.1,29.98,North,360,1.0,1.0,56,0.00,,---,0.00,VWS V14.01,2013-08-08 10:50:00,
2013-08-08 04:51:00,50.2,35.1,29.98,North,360,0.0,4.0,56,0.00,,---,0.00,VWS V14.01,2013-08-08 10:51:00,
2013-08-08 04:52:00,50.2,35.1,29.98,North,360,0.0,1.0,56,0.00,,---,0.00,VWS V14.01,2013-08-08 10:52:00,
2013-08-08 04:53:00,50.2,35.1,29.98,North,360,0.0,0.0,56,0.00,,---,0.00,VWS V14.01,2013-08-08 10:53:00,
2013-08-08 04:54:00,50.2,35.1,29.98,North,360,0.0,0.0,56,0.00,,---,0.00,VWS V14.01,2013-08-08 10:54:00,
2013-08-08 04:55:00,50.1,35.0,29.98,North,360,0.0,0.0,56,0.00,,---,0.00,VWS V14.01,2013-08-08 10:55:00,
2013-08-08 04:56:00,50.1,35.0,29.98,North,360,0.0,0.0,56,0.00,,---,0.00,VWS V14.01,2013-08-08 10:56:00,
2013-08-08 04:57:00,50.1,35.0,29.98,North,360,0.0,0.0,56,0.00,,---,0.00,VWS V14.01,2013-08-08 10:57:00,
2013-08-08 04:58:00,50.1,35.0,29.98,North,360,0.0,0.0,56,0.00,,---,0.00,VWS V14.01,2013-08-08 10:58:00,
2013-08-08 04:59:00,50.1,35.0,29.98,North,360,0.0,0.0,56,0.00,,---,0.00,VWS V14.01,2013-08-08 10:59:00,
2013-08-08 05:00:00,50.0,34.9,29.98,North,360,0.0,2.0,56,0.00,,---,0.00,VWS V14.01,2013-08-08 11:00:00,
2013-08-08 05:01:00,49.9,35.3,29.98,North,360,0.0,1.0,57,0.00,,---,0.00,VWS V14.01,2013-08-08 11:01:00,
2013-08-08 05:02:00,49.9,35.3,29.98,North,360,0.0,0.0,57,0.00,,---,0.00,VWS V14.01,2013-08-08 11:02:00,
2013-08-08 05:03:00,49.9,35.3,29.98,North,360,4.0,4.0,57,0.00,,---,0.00,VWS V14.01,2013-08-08 11:03:00,
2013-08-08 05:04:00,49.9,35.3,29.98,North,360,4.0,4.0,57,0.00,,---,0.00,VWS V14.01,2013-08-08 11:04:00,
2013-08-08 05:05:00,49.8,35.6,29.98,North,360,0.0,1.0,58,0.00,,---,0.00,VWS V14.01,2013-08-08 11:05:00,
2013-08-08 05:06:00,49.8,35.6,29.98,North,360,3.0,3.0,58,0.00,,---,0.00,VWS V14.01,2013-08-08 11:06:00,
2013-08-08 05:07:00,49.7,35.5,29.98,North,360,3.0,4.0,58,0.00,,---,0.00,VWS V14.01,2013-08-08 11:07:00,
2013-08-08 05:08:00,49.7,35.5,29.98,North,360,2.0,3.0,58,0.00,,---,0.00,VWS V14.01,2013-08-08 11:08:00,
2013-08-08 05:09:00,49.7,35.5,29.98,North,360,2.0,3.0,58,0.00,,---,0.00,VWS V14.01,2013-08-08 11:09:00,
2013-08-08 05:10:00,49.7,35.5,29.99,North,360,0.0,1.0,58,0.00,,---,0.00,VWS V14.01,2013-08-08 11:10:00,
2013-08-08 05:11:00,49.7,35.5,29.99,North,360,0.0,2.0,58,0.00,,---,0.00,VWS V14.01,2013-08-08 11:11:00,
2013-08-08 05:12:00,49.7,35.5,29.99,North,360,0.0,1.0,58,0.00,,---,0.00,VWS V14.01,2013-08-08 11:12:00,
2013-08-08 05:13:00,49.7,35.5,29.99,North,360,0.0,0.0,58,0.00,,---,0.00,VWS V14.01,2013-08-08 11:13:00,
2013-08-08 05:14:00,49.7,35.5,29.99,North,360,0.0,0.0,58,0.00,,---,0.00,VWS V14.01,2013-08-08 11:14:00,
2013-08-08 05:15:00,49.7,35.1,29.99,North,360,0.0,1.0,57,0.00,,---,0.00,VWS V14.01,2013-08-08 11:15:00,
2013-08-08 05:16:00,49.7,35.1,29.99,North,360,0.0,0.0,57,0.00,,---,0.00,VWS V14.01,2013-08-08 11:16:00,
2013-08-08 05:17:00,49.7,35.5,29.99,North,360,0.0,0.0,58,0.00,,---,0.00,VWS V14.01,2013-08-08 11:17:00,
2013-08-08 05:18:00,49.7,35.1,29.99,North,360,0.0,0.0,57,0.00,,---,0.00,VWS V14.01,2013-08-08 11:18:00,
2013-08-08 05:19:00,49.7,35.1,29.99,North,360,0.0,0.0,57,0.00,,---,0.00,VWS V14.01,2013-08-08 11:19:00,
2013-08-08 05:20:00,49.7,35.1,29.99,North,360,0.0,0.0,57,0.00,,---,0.00,VWS V14.01,2013-08-08 11:20:00,
2013-08-08 05:21:00,49.7,35.1,29.99,North,360,0.0,0.0,57,0.00,,---,0.00,VWS V14.01,2013-08-08 11:21:00,
2013-08-08 05:22:00,49.7,35.1,29.99,North,360,0.0,0.0,57,0.00,,---,0.00,VWS V14.01,2013-08-08 11:22:00,
2013-08-08 05:23:00,49.7,35.1,29.99,North,360,0.0,0.0,57,0.00,,---,0.00,VWS V14.01,2013-08-08 11:23:00,
2013-08-08 05:24:00,49.7,35.1,29.99,North,360,0.0,0.0,57,0.00,,---,0.00,VWS V14.01,2013-08-08 11:24:00,
2013-08-08 05:25:00,49.6,34.6,29.99,North,360,0.0,0.0,56,0.00,,---,0.00,VWS V14.01,2013-08-08 11:25:00,
2013-08-08 05:26:00,49.6,35.0,29.99,North,360,0.0,0.0,57,0.00,,---,0.00,VWS V14.01,2013-08-08 11:26:00,
2013-08-08 05:27:00,49.6,34.6,29.99,North,360,0.0,0.0,56,0.00,,---,0.00,VWS V14.01,2013-08-08 11:27:00,
2013-08-08 05:28:00,49.5,34.5,29.99,North,360,2.0,2.0,56,0.00,,---,0.00,VWS V14.01,2013-08-08 11:28:00,
2013-08-08 05:29:00,49.5,34.5,29.99,North,360,2.0,2.0,56,0.00,,---,0.00,VWS V14.01,2013-08-08 11:29:00,
2013-08-08 05:30:00,49.5,34.0,29.99,North,360,2.0,4.0,55,0.00,,---,0.00,VWS V14.01,2013-08-08 11:30:00,
2013-08-08 05:31:00,49.5,34.5,29.99,North,360,1.0,2.0,56,0.00,,---,0.00,VWS V14.01,2013-08-08 11:31:00,
2013-08-08 05:32:00,49.4,34.4,29.99,North,360,0.0,1.0,56,0.00,,---,0.00,VWS V14.01,2013-08-08 11:32:00,
2013-08-08 05:33:00,49.5,34.5,29.99,North,360,1.0,1.0,56,0.00,,---,0.00,VWS V14.01,2013-08-08 11:33:00,
2013-08-08 05:34:00,49.5,34.5,29.99,North,360,1.0,1.0,56,0.00,,---,0.00,VWS V14.01,2013-08-08 11:34:00,
2013-08-08 05:35:00,49.4,34.8,29.99,North,360,0.0,0.0,57,0.00,,---,0.00,VWS V14.01,2013-08-08 11:35:00,
2013-08-08 05:36:00,49.4,34.8,29.99,North,360,0.0,0.0,57,0.00,,---,0.00,VWS V14.01,2013-08-08 11:36:00,
2013-08-08 05:37:00,49.4,34.8,29.99,North,360,0.0,2.0,57,0.00,,---,0.00,VWS V14.01,2013-08-08 11:37:00,
2013-08-08 05:38:00,49.4,34.8,29.99,North,360,1.0,1.0,57,0.00,,---,0.00,VWS V14.01,2013-08-08 11:38:00,
2013-08-08 05:39:00,49.4,34.8,29.99,North,360,1.0,1.0,57,0.00,,---,0.00,VWS V14.01,2013-08-08 11:39:00,
2013-08-08 05:40:00,49.4,34.8,29.99,North,360,0.0,2.0,57,0.00,,---,0.00,VWS V14.01,2013-08-08 11:40:00,
2013-08-08 05:41:00,49.4,34.8,29.99,North,360,1.0,1.0,57,0.00,,---,0.00,VWS V14.01,2013-08-08 11:41:00,
2013-08-08 05:42:00,49.4,34.8,29.99,North,360,2.0,2.0,57,0.00,,---,0.00,VWS V14.01,2013-08-08 11:42:00,
2013-08-08 05:43:00,49.4,34.4,29.99,North,360,4.0,4.0,56,0.00,,---,0.00,VWS V14.01,2013-08-08 11:43:00,
2013-08-08 05:44:00,49.4,34.4,29.99,North,360,4.0,4.0,56,0.00,,---,0.00,VWS V14.01,2013-08-08 11:44:00,
2013-08-08 05:45:00,49.4,34.4,29.99,North,360,2.0,2.0,56,0.00,,---,0.00,VWS V14.01,2013-08-08 11:45:00,
2013-08-08 05:46:00,49.4,34.4,30.00,North,360,1.0,4.0,56,0.00,,---,0.00,VWS V14.01,2013-08-08 11:46:00,
2013-08-08 05:47:00,49.5,34.5,30.00,North,360,2.0,3.0,56,0.00,,---,0.00,VWS V14.01,2013-08-08 11:47:00,
2013-08-08 05:48:00,49.5,34.5,29.99,North,360,0.0,2.0,56,0.00,,---,0.00,VWS V14.01,2013-08-08 11:48:00,
2013-08-08 05:49:00,49.5,34.5,29.99,North,360,0.0,2.0,56,0.00,,---,0.00,VWS V14.01,2013-08-08 11:49:00,
2013-08-08 05:50:00,49.5,34.5,30.00,North,360,2.0,4.0,56,0.00,,---,0.00,VWS V14.01,2013-08-08 11:50:00,
2013-08-08 05:51:00,49.6,35.0,30.00,North,360,5.0,5.0,57,0.00,,---,0.00,VWS V14.01,2013-08-08 11:51:00,
2013-08-08 05:52:00,49.5,34.9,30.00,North,360,5.0,5.0,57,0.00,,---,0.00,VWS V14.01,2013-08-08 11:52:00,
2013-08-08 05:53:00,49.5,34.5,30.00,North,360,3.0,5.0,56,0.00,,---,0.00,VWS V14.01,2013-08-08 11:53:00,
2013-08-08 05:54:00,49.5,34.9,30.00,North,360,4.0,5.0,57,0.00,,---,0.00,VWS V14.01,2013-08-08 11:54:00,
2013-08-08 05:55:00,49.5,34.5,30.00,North,360,2.0,3.0,56,0.00,,---,0.00,VWS V14.01,2013-08-08 11:55:00,
2013-08-08 05:56:00,49.4,34.8,30.00,North,360,4.0,5.0,57,0.00,,---,0.00,VWS V14.01,2013-08-08 11:56:00,
2013-08-08 05:57:00,49.4,34.8,30.00,North,360,3.0,4.0,57,0.00,,---,0.00,VWS V14.01,2013-08-08 11:57:00,
2013-08-08 05:58:00,49.4,34.8,30.00,North,360,3.0,4.0,57,0.00,,---,0.00,VWS V14.01,2013-08-08 11:58:00,
2013-08-08 05:59:00,49.3,34.7,30.00,North,360,4.0,5.0,57,0.00,,---,0.00,VWS V14.01,2013-08-08 11:59:00,
2013-08-08 06:00:00,49.4,34.8,30.00,North,360,3.0,4.0,57,0.00,,---,0.00,VWS V14.01,2013-08-08 12:00:00,
2013-08-08 06:01:00,49.2,34.6,30.00,North,360,2.0,4.0,57,0.00,,---,0.00,VWS V14.01,2013-08-08 12:01:00,
2013-08-08 06:02:00,49.2,34.6,30.00,North,360,1.0,3.0,57,0.00,,---,0.00,VWS V14.01,2013-08-08 12:02:00,
2013-08-08 06:03:00,49.2,35.1,30.00,North,360,3.0,3.0,58,0.00,,---,0.00,VWS V14.01,2013-08-08 12:03:00,
2013-08-08 06:04:00,49.1,34.5,30.00,North,360,1.0,5.0,57,0.00,,---,0.00,VWS V14.01,2013-08-08 12:04:00,
2013-08-08 06:05:00,49.1,35.0,30.00,North,360,2.0,4.0,58,0.00,,---,0.00,VWS V14.01,2013-08-08 12:05:00,
2013-08-08 06:06:00,49.1,35.0,30.00,North,360,0.0,2.0,58,0.00,,---,0.00,VWS V14.01,2013-08-08 12:06:00,
2013-08-08 06:07:00,49.1,35.0,30.00,North,360,0.0,1.0,58,0.00,,---,0.00,VWS V14.01,2013-08-08 12:07:00,
2013-08-08 06:08:00,49.1,35.0,30.00,North,360,0.0,0.0,58,0.00,,---,0.00,VWS V14.01,2013-08-08 12:08:00,
2013-08-08 06:09:00,49.1,35.0,30.00,North,360,0.0,0.0,58,0.00,,---,0.00,VWS V14.01,2013-08-08 12:09:00,
2013-08-08 06:10:00,49.1,35.0,30.00,North,360,0.0,0.0,58,0.00,,---,0.00,VWS V14.01,2013-08-08 12:10:00,
2013-08-08 06:11:00,49.1,35.4,30.00,North,360,0.0,0.0,59,0.00,,---,0.00,VWS V14.01,2013-08-08 12:11:00,
2013-08-08 06:12:00,49.0,35.3,30.00,North,360,0.0,0.0,59,0.00,,---,0.00,VWS V14.01,2013-08-08 12:12:00,
2013-08-08 06:13:00,49.0,35.3,30.00,North,360,0.0,0.0,59,0.00,,---,0.00,VWS V14.01,2013-08-08 12:13:00,
2013-08-08 06:14:00,49.0,35.3,30.01,North,360,0.0,0.0,59,0.00,,---,0.00,VWS V14.01,2013-08-08 12:14:00,
2013-08-08 06:15:00,49.0,35.3,30.01,North,360,0.0,0.0,59,0.00,,---,0.00,VWS V14.01,2013-08-08 12:15:00,
2013-08-08 06:16:00,48.9,35.2,30.01,North,360,0.0,0.0,59,0.00,,---,0.00,VWS V14.01,2013-08-08 12:16:00,
2013-08-08 06:17:00,48.9,35.2,30.01,North,360,0.0,0.0,59,0.00,,---,0.00,VWS V14.01,2013-08-08 12:17:00,
2013-08-08 06:18:00,48.9,35.2,30.01,North,360,0.0,0.0,59,0.00,,---,0.00,VWS V14.01,2013-08-08 12:18:00,
2013-08-08 06:19:00,48.9,35.2,30.01,North,360,0.0,0.0,59,0.00,,---,0.00,VWS V14.01,2013-08-08 12:19:00,
2013-08-08 06:20:00,48.9,35.2,30.01,North,360,0.0,0.0,59,0.00,,---,0.00,VWS V14.01,2013-08-08 12:20:00,
2013-08-08 06:21:00,48.9,35.2,30.01,North,360,0.0,1.0,59,0.00,,---,0.00,VWS V14.01,2013-08-08 12:21:00,
2013-08-08 06:22:00,48.9,35.2,30.01,North,360,0.0,1.0,59,0.00,,---,0.00,VWS V14.01,2013-08-08 12:22:00,
2013-08-08 06:23:00,48.8,35.1,30.01,North,360,0.0,1.0,59,0.00,,---,0.00,VWS V14.01,2013-08-08 12:23:00,
2013-08-08 06:24:00,48.9,35.2,30.01,North,360,0.0,0.0,59,0.00,,---,0.00,VWS V14.01,2013-08-08 12:24:00,
2013-08-08 06:25:00,48.9,35.2,30.01,North,360,0.0,0.0,59,0.00,,---,0.00,VWS V14.01,2013-08-08 12:25:00,
2013-08-08 06:26:00,48.9,35.2,30.01,North,360,1.0,1.0,59,0.00,,---,0.00,VWS V14.01,2013-08-08 12:26:00,
2013-08-08 06:27:00,48.9,35.2,30.01,North,360,1.0,1.0,59,0.00,,---,0.00,VWS V14.01,2013-08-08 12:27:00,
2013-08-08 06:28:00,48.9,35.6,30.01,North,360,0.0,1.0,60,0.00,,---,0.00,VWS V14.01,2013-08-08 12:28:00,
2013-08-08 06:29:00,48.9,35.6,30.01,North,360,2.0,4.0,60,0.00,,---,0.00,VWS V14.01,2013-08-08 12:29:00,
2013-08-08 06:30:00,48.9,35.6,30.01,North,360,3.0,3.0,60,0.00,,---,0.00,VWS V14.01,2013-08-08 12:30:00,
2013-08-08 06:31:00,48.9,35.6,30.02,North,360,0.0,3.0,60,0.00,,---,0.00,VWS V14.01,2013-08-08 12:31:00,
2013-08-08 06:32:00,48.9,35.6,30.01,North,360,2.0,5.0,60,0.00,,---,0.00,VWS V14.01,2013-08-08 12:32:00,
2013-08-08 06:33:00,48.9,36.1,30.01,North,360,4.0,5.0,61,0.00,,---,0.00,VWS V14.01,2013-08-08 12:33:00,
2013-08-08 06:34:00,49.0,36.6,30.01,North,360,4.0,5.0,62,0.00,,---,0.00,VWS V14.01,2013-08-08 12:34:00,
2013-08-08 06:35:00,49.0,36.6,30.01,North,360,1.0,5.0,62,0.00,,---,0.00,VWS V14.01,2013-08-08 12:35:00,
2013-08-08 06:36:00,49.0,36.6,30.01,North,360,0.0,2.0,62,0.00,,---,0.00,VWS V14.01,2013-08-08 12:36:00,
2013-08-08 06:37:00,49.1,37.1,30.01,North,360,0.0,2.0,63,0.00,,---,0.00,VWS V14.01,2013-08-08 12:37:00,
2013-08-08 06:38:00,49.1,37.1,30.01,North,360,0.0,2.0,63,0.00,,---,0.00,VWS V14.01,2013-08-08 12:38:00,
2013-08-08 06:39:00,49.1,37.1,30.01,North,360,1.0,2.0,63,0.00,,---,0.00,VWS V14.01,2013-08-08 12:39:00,
2013-08-08 06:40:00,49.1,37.1,30.01,North,360,1.0,2.0,63,0.00,,---,0.00,VWS V14.01,2013-08-08 12:40:00,
2013-08-08 06:41:00,49.2,37.6,30.01,North,360,4.0,5.0,64,0.00,,---,0.00,VWS V14.01,2013-08-08 12:41:00,
2013-08-08 06:42:00,49.3,37.7,30.01,North,360,2.0,4.0,64,0.00,,---,0.00,VWS V14.01,2013-08-08 12:42:00,
2013-08-08 06:43:00,49.3,37.7,30.01,North,360,0.0,2.0,64,0.00,,---,0.00,VWS V14.01,2013-08-08 12:43:00,
2013-08-08 06:44:00,49.3,37.7,30.01,North,360,0.0,0.0,64,0.00,,---,0.00,VWS V14.01,2013-08-08 12:44:00,
2013-08-08 06:45:00,49.3,37.7,30.01,North,360,0.0,0.0,64,0.00,,---,0.00,VWS V14.01,2013-08-08 12:45:00,
2013-08-08 06:46:00,49.4,37.8,30.01,North,360,0.0,1.0,64,0.00,,---,0.00,VWS V14.01,2013-08-08 12:46:00,
2013-08-08 06:47:00,49.4,37.3,30.01,North,360,0.0,0.0,63,0.00,,---,0.00,VWS V14.01,2013-08-08 12:47:00,
2013-08-08 06:48:00,49.5,37.4,30.01,North,360,0.0,0.0,63,0.00,,---,0.00,VWS V14.01,2013-08-08 12:48:00,
2013-08-08 06:49:00,49.6,37.5,30.01,North,360,0.0,0.0,63,0.00,,---,0.00,VWS V14.01,2013-08-08 12:49:00,
2013-08-08 06:50:00,49.6,37.5,30.01,North,360,0.0,0.0,63,0.00,,---,0.00,VWS V14.01,2013-08-08 12:50:00,
2013-08-08 06:51:00,49.6,37.9,30.01,North,360,0.0,0.0,64,0.00,,---,0.00,VWS V14.01,2013-08-08 12:51:00,
2013-08-08 06:52:00,49.7,38.0,30.01,North,360,1.0,2.0,64,0.00,,---,0.00,VWS V14.01,2013-08-08 12:52:00,
2013-08-08 06:53:00,49.7,38.0,30.01,North,5,5.0,5.0,64,0.00,,---,0.00,VWS V14.01,2013-08-08 12:53:00,
2013-08-08 06:54:00,49.7,38.0,30.01,North,5,0.0,5.0,64,0.00,,---,0.00,VWS V14.01,2013-08-08 12:54:00,
2013-08-08 06:55:00,49.7,38.0,30.01,North,5,0.0,5.0,64,0.00,,---,0.00,VWS V14.01,2013-08-08 12:55:00,
2013-08-08 06:56:00,49.8,39.3,30.01,North,5,2.0,5.0,67,0.00,,---,0.00,VWS V14.01,2013-08-08 12:56:00,
2013-08-08 06:57:00,49.9,39.8,30.01,North,5,0.0,2.0,68,0.00,,---,0.00,VWS V14.01,2013-08-08 12:57:00,
2013-08-08 06:58:00,49.9,39.4,30.01,North,5,0.0,2.0,67,0.00,,---,0.00,VWS V14.01,2013-08-08 12:58:00,
2013-08-08 06:59:00,49.9,39.4,30.01,North,5,0.0,1.0,67,0.00,,---,0.00,VWS V14.01,2013-08-08 12:59:00,
2013-08-08 07:00:00,49.9,39.4,30.01,North,5,0.0,1.0,67,0.00,,---,0.00,VWS V14.01,2013-08-08 13:00:00,
2013-08-08 07:01:00,50.1,40.7,30.01,North,5,1.0,2.0,70,0.00,,---,0.00,VWS V14.01,2013-08-08 13:01:00,
2013-08-08 07:02:00,50.2,40.8,30.01,North,5,0.0,4.0,70,0.00,,---,0.00,VWS V14.01,2013-08-08 13:02:00,
2013-08-08 07:03:00,50.2,40.8,30.01,North,5,0.0,0.0,70,0.00,,---,0.00,VWS V14.01,2013-08-08 13:03:00,
2013-08-08 07:04:00,50.3,40.9,30.01,North,5,0.0,0.0,70,0.00,,---,0.00,VWS V14.01,2013-08-08 13:04:00,
2013-08-08 07:05:00,50.3,40.9,30.01,North,5,0.0,0.0,70,0.00,,---,0.00,VWS V14.01,2013-08-08 13:05:00,
2013-08-08 07:06:00,50.3,41.3,30.01,North,5,0.0,0.0,71,0.00,,---,0.00,VWS V14.01,2013-08-08 13:06:00,
2013-08-08 07:07:00,50.4,41.0,30.01,North,5,1.0,2.0,70,0.00,,---,0.00,VWS V14.01,2013-08-08 13:07:00,
2013-08-08 07:08:00,50.4,41.0,30.01,North,5,1.0,1.0,70,0.00,,---,0.00,VWS V14.01,2013-08-08 13:08:00,
2013-08-08 07:09:00,50.4,41.0,30.01,North,5,0.0,2.0,70,0.00,,---,0.00,VWS V14.01,2013-08-08 13:09:00,
2013-08-08 07:10:00,50.4,41.0,30.01,North,5,0.0,2.0,70,0.00,,---,0.00,VWS V14.01,2013-08-08 13:10:00,
2013-08-08 07:11:00,50.5,41.1,30.01,North,5,0.0,2.0,70,0.00,,---,0.00,VWS V14.01,2013-08-08 13:11:00,
2013-08-08 07:12:00,50.5,40.7,30.01,North,5,0.0,0.0,69,0.00,,---,0.00,VWS V14.01,2013-08-08 13:12:00,
2013-08-08 07:13:00,50.6,40.1,30.01,North,5,0.0,0.0,67,0.00,,---,0.00,VWS V14.01,2013-08-08 13:13:00,
2013-08-08 07:14:00,50.6,40.4,30.01,North,5,0.0,0.0,68,0.00,,---,0.00,VWS V14.01,2013-08-08 13:14:00,
2013-08-08 07:15:00,50.6,40.8,30.01,North,5,1.0,1.0,69,0.00,,---,0.00,VWS V14.01,2013-08-08 13:15:00,
2013-08-08 07:16:00,50.6,40.4,30.01,North,5,0.0,0.0,68,0.00,,---,0.00,VWS V14.01,2013-08-08 13:16:00,
2013-08-08 07:17:00,50.7,41.3,30.01,North,5,1.0,2.0,70,0.00,,---,0.00,VWS V14.01,2013-08-08 13:17:00,
2013-08-08 07:18:00,50.8,41.4,30.01,North,5,0.0,1.0,70,0.00,,---,0.00,VWS V14.01,2013-08-08 13:18:00,
2013-08-08 07:19:00,50.8,41.8,30.01,North,5,0.0,0.0,71,0.00,,---,0.00,VWS V14.01,2013-08-08 13:19:00,
2013-08-08 07:20:00,50.9,41.8,30.01,North,5,0.0,4.0,71,0.00,,---,0.00,VWS V14.01,2013-08-08 13:20:00,
2013-08-08 07:21:00,50.9,41.8,30.01,North,5,0.0,0.0,71,0.00,,---,0.00,VWS V14.01,2013-08-08 13:21:00,
2013-08-08 07:22:00,50.9,41.8,30.01,North,5,0.0,0.0,71,0.00,,---,0.00,VWS V14.01,2013-08-08 13:22:00,
2013-08-08 07:23:00,51.0,41.9,30.02,North,5,0.0,0.0,71,0.00,,---,0.00,VWS V14.01,2013-08-08 13:23:00,
2013-08-08 07:24:00,51.0,42.3,30.02,North,5,0.0,0.0,72,0.00,,---,0.00,VWS V14.01,2013-08-08 13:24:00,
2013-08-08 07:25:00,51.1,42.4,30.02,North,5,0.0,0.0,72,0.00,,---,0.00,VWS V14.01,2013-08-08 13:25:00,
2013-08-08 07:26:00,51.0,42.3,30.02,North,5,0.0,0.0,72,0.00,,---,0.00,VWS V14.01,2013-08-08 13:26:00,
2013-08-08 07:27:00,51.2,42.5,30.02,North,5,0.0,0.0,72,0.00,,---,0.00,VWS V14.01,2013-08-08 13:27:00,
2013-08-08 07:28:00,51.2,42.1,30.01,North,5,0.0,0.0,71,0.00,,---,0.00,VWS V14.01,2013-08-08 13:28:00,
2013-08-08 07:29:00,51.3,42.2,30.02,North,5,0.0,0.0,71,0.00,,---,0.00,VWS V14.01,2013-08-08 13:29:00,
2013-08-08 07:30:00,51.3,42.2,30.02,North,5,0.0,0.0,71,0.00,,---,0.00,VWS V14.01,2013-08-08 13:30:00,
2013-08-08 07:31:00,51.3,42.2,30.02,North,5,0.0,0.0,71,0.00,,---,0.00,VWS V14.01,2013-08-08 13:31:00,
2013-08-08 07:32:00,51.5,42.8,30.02,North,5,0.0,0.0,72,0.00,,---,0.00,VWS V14.01,2013-08-08 13:32:00,
2013-08-08 07:33:00,51.5,42.4,30.02,North,5,0.0,0.0,71,0.00,,---,0.00,VWS V14.01,2013-08-08 13:33:00,
2013-08-08 07:34:00,51.6,42.5,30.02,North,5,2.0,2.0,71,0.00,,---,0.00,VWS V14.01,2013-08-08 13:34:00,
2013-08-08 07:35:00,51.6,42.2,30.02,North,5,0.0,2.0,70,0.00,,---,0.00,VWS V14.01,2013-08-08 13:35:00,
2013-08-08 07:36:00,51.6,42.2,30.02,North,5,2.0,2.0,70,0.00,,---,0.00,VWS V14.01,2013-08-08 13:36:00,
2013-08-08 07:37:00,51.6,40.6,30.02,North,5,0.0,1.0,66,0.00,,---,0.00,VWS V14.01,2013-08-08 13:37:00,
2013-08-08 07:38:00,51.6,39.8,30.02,North,5,0.0,1.0,64,0.00,,---,0.00,VWS V14.01,2013-08-08 13:38:00,
2013-08-08 07:39:00,51.5,39.7,30.02,North,5,0.0,0.0,64,0.00,,---,0.00,VWS V14.01,2013-08-08 13:39:00,
2013-08-08 07:40:00,51.5,39.3,30.02,North,5,0.0,0.0,63,0.00,,---,0.00,VWS V14.01,2013-08-08 13:40:00,
2013-08-08 07:41:00,51.5,39.3,30.02,North,5,0.0,0.0,63,0.00,,---,0.00,VWS V14.01,2013-08-08 13:41:00,
2013-08-08 07:42:00,51.5,39.7,30.02,North,5,0.0,0.0,64,0.00,,---,0.00,VWS V14.01,2013-08-08 13:42:00,
2013-08-08 07:43:00,51.5,39.7,30.02,North,5,0.0,0.0,64,0.00,,---,0.00,VWS V14.01,2013-08-08 13:43:00,
2013-08-08 07:44:00,51.5,39.3,30.02,North,5,0.0,0.0,63,0.00,,---,0.00,VWS V14.01,2013-08-08 13:44:00,
2013-08-08 07:45:00,51.5,39.3,30.02,North,5,0.0,0.0,63,0.00,,---,0.00,VWS V14.01,2013-08-08 13:45:00,
2013-08-08 07:46:00,51.5,39.3,30.02,North,5,0.0,0.0,63,0.00,,---,0.00,VWS V14.01,2013-08-08 13:46:00,
2013-08-08 07:47:00,51.5,39.3,30.02,North,5,0.0,0.0,63,0.00,,---,0.00,VWS V14.01,2013-08-08 13:47:00,
2013-08-08 07:48:00,51.6,39.8,30.02,North,5,0.0,0.0,64,0.00,,---,0.00,VWS V14.01,2013-08-08 13:48:00,
2013-08-08 07:49:00,51.6,39.8,30.02,North,5,0.0,0.0,64,0.00,,---,0.00,VWS V14.01,2013-08-08 13:49:00,
2013-08-08 07:50:00,51.7,39.9,30.02,North,5,0.0,0.0,64,0.00,,---,0.00,VWS V14.01,2013-08-08 13:50:00,
2013-08-08 07:51:00,51.7,39.9,30.02,North,5,0.0,0.0,64,0.00,,---,0.00,VWS V14.01,2013-08-08 13:51:00,
2013-08-08 07:52:00,51.8,40.4,30.02,North,5,0.0,0.0,65,0.00,,---,0.00,VWS V14.01,2013-08-08 13:52:00,
2013-08-08 07:53:00,51.9,40.1,30.02,North,5,0.0,0.0,64,0.00,,---,0.00,VWS V14.01,2013-08-08 13:53:00,
2013-08-08 07:54:00,52.0,40.6,30.02,North,5,0.0,1.0,65,0.00,,---,0.00,VWS V14.01,2013-08-08 13:54:00,
2013-08-08 07:55:00,52.1,40.7,30.02,North,5,1.0,2.0,65,0.00,,---,0.00,VWS V14.01,2013-08-08 13:55:00,
2013-08-08 07:56:00,52.1,40.7,30.02,North,5,1.0,2.0,65,0.00,,---,0.00,VWS V14.01,2013-08-08 13:56:00,
2013-08-08 07:57:00,52.3,40.1,30.02,North,5,1.0,1.0,63,0.00,,---,0.00,VWS V14.01,2013-08-08 13:57:00,
2013-08-08 07:58:00,52.5,40.3,30.02,North,5,0.0,1.0,63,0.00,,---,0.00,VWS V14.01,2013-08-08 13:58:00,
2013-08-08 07:59:00,52.6,40.4,30.02,North,5,0.0,1.0,63,0.00,,---,0.00,VWS V14.01,2013-08-08 13:59:00,
2013-08-08 08:00:00,52.7,40.1,30.02,North,5,1.0,1.0,62,0.00,,---,0.00,VWS V14.01,2013-08-08 14:00:00,
2013-08-08 08:01:00,52.7,40.1,30.02,North,5,1.0,1.0,62,0.00,,---,0.00,VWS V14.01,2013-08-08 14:01:00,
2013-08-08 08:02:00,52.9,39.8,30.02,North,5,0.0,1.0,61,0.00,,---,0.00,VWS V14.01,2013-08-08 14:02:00,
2013-08-08 08:03:00,53.0,39.9,30.02,North,5,0.0,1.0,61,0.00,,---,0.00,VWS V14.01,2013-08-08 14:03:00,
2013-08-08 08:04:00,53.1,40.0,30.02,North,5,0.0,0.0,61,0.00,,---,0.00,VWS V14.01,2013-08-08 14:04:00,
2013-08-08 08:05:00,53.2,40.1,30.02,North,5,0.0,0.0,61,0.00,,---,0.00,VWS V14.01,2013-08-08 14:05:00,
2013-08-08 08:06:00,53.2,40.1,30.02,North,5,0.0,0.0,61,0.00,,---,0.00,VWS V14.01,2013-08-08 14:06:00,
2013-08-08 08:07:00,53.4,40.7,30.02,North,5,0.0,0.0,62,0.00,,---,0.00,VWS V14.01,2013-08-08 14:07:00,
2013-08-08 08:08:00,53.5,40.4,30.02,North,5,0.0,1.0,61,0.00,,---,0.00,VWS V14.01,2013-08-08 14:08:00,
2013-08-08 08:09:00,53.6,40.9,30.02,North,5,0.0,1.0,62,0.00,,---,0.00,VWS V14.01,2013-08-08 14:09:00,
2013-08-08 08:10:00,53.7,41.0,30.02,North,5,0.0,1.0,62,0.00,,---,0.00,VWS V14.01,2013-08-08 14:10:00,
2013-08-08 08:11:00,53.7,41.0,30.02,North,5,0.0,1.0,62,0.00,,---,0.00,VWS V14.01,2013-08-08 14:11:00,
2013-08-08 08:12:00,54.1,41.4,30.03,North,5,0.0,1.0,62,0.00,,---,0.00,VWS V14.01,2013-08-08 14:12:00,
2013-08-08 08:13:00,54.2,40.6,30.02,North,5,2.0,2.0,60,0.00,,---,0.00,VWS V14.01,2013-08-08 14:13:00,
2013-08-08 08:14:00,54.2,40.2,30.02,North,5,1.0,3.0,59,0.00,,---,0.00,VWS V14.01,2013-08-08 14:14:00,
2013-08-08 08:15:00,54.4,40.4,30.02,North,5,2.0,4.0,59,0.00,,---,0.00,VWS V14.01,2013-08-08 14:15:00,
2013-08-08 08:16:00,54.4,40.4,30.02,North,5,2.0,4.0,59,0.00,,---,0.00,VWS V14.01,2013-08-08 14:16:00,
2013-08-08 08:17:00,54.4,40.0,30.03,ESE,105,5.0,6.0,58,0.00,,---,0.00,VWS V14.01,2013-08-08 14:17:00,
2013-08-08 08:18:00,54.4,39.5,30.03,ESE,105,4.0,6.0,57,0.00,,---,0.00,VWS V14.01,2013-08-08 14:18:00,
2013-08-08 08:19:00,54.4,39.5,30.02,ESE,105,0.0,4.0,57,0.00,,---,0.00,VWS V14.01,2013-08-08 14:19:00,
2013-08-08 08:20:00,54.4,40.0,30.03,ESE,105,0.0,4.0,58,0.00,,---,0.00,VWS V14.01,2013-08-08 14:20:00,
2013-08-08 08:21:00,54.4,40.0,30.03,ESE,105,0.0,4.0,58,0.00,,---,0.00,VWS V14.01,2013-08-08 14:21:00,
2013-08-08 08:22:00,54.3,40.3,30.03,ESE,105,1.0,1.0,59,0.00,,---,0.00,VWS V14.01,2013-08-08 14:22:00,
2013-08-08 08:23:00,54.2,40.2,30.03,ESE,105,3.0,4.0,59,0.00,,---,0.00,VWS V14.01,2013-08-08 14:23:00,
2013-08-08 08:24:00,54.2,40.6,30.03,ESE,105,1.0,3.0,60,0.00,,---,0.00,VWS V14.01,2013-08-08 14:24:00,
2013-08-08 08:25:00,54.2,40.2,30.03,ESE,105,1.0,2.0,59,0.00,,---,0.00,VWS V14.01,2013-08-08 14:25:00,
2013-08-08 08:26:00,54.2,40.2,30.03,ESE,105,1.0,2.0,59,0.00,,---,0.00,VWS V14.01,2013-08-08 14:26:00,
2013-08-08 08:27:00,54.1,40.5,30.03,ESE,105,0.0,1.0,60,0.00,,---,0.00,VWS V14.01,2013-08-08 14:27:00,
2013-08-08 08:28:00,54.2,40.6,30.03,ESE,105,1.0,4.0,60,0.00,,---,0.00,VWS V14.01,2013-08-08 14:28:00,
2013-08-08 08:29:00,54.2,40.6,30.03,ESE,105,1.0,1.0,60,0.00,,---,0.00,VWS V14.01,2013-08-08 14:29:00,
2013-08-08 08:30:00,54.2,41.1,30.03,ESE,105,0.0,4.0,61,0.00,,---,0.00,VWS V14.01,2013-08-08 14:30:00,
2013-08-08 08:31:00,54.2,41.1,30.03,ESE,105,0.0,4.0,61,0.00,,---,0.00,VWS V14.01,2013-08-08 14:31:00,
2013-08-08 08:32:00,54.3,40.7,30.03,ESE,105,0.0,0.0,60,0.00,,---,0.00,VWS V14.01,2013-08-08 14:32:00,
2013-08-08 08:33:00,54.3,40.7,30.03,ESE,105,2.0,2.0,60,0.00,,---,0.00,VWS V14.01,2013-08-08 14:33:00,
2013-08-08 08:34:00,54.3,41.2,30.03,ESE,105,4.0,4.0,61,0.00,,---,0.00,VWS V14.01,2013-08-08 14:34:00,
2013-08-08 08:35:00,54.4,41.2,30.03,ESE,105,1.0,4.0,61,0.00,,---,0.00,VWS V14.01,2013-08-08 14:35:00,
2013-08-08 08:36:00,54.4,41.2,30.03,ESE,105,1.0,4.0,61,0.00,,---,0.00,VWS V14.01,2013-08-08 14:36:00,
2013-08-08 08:37:00,54.5,41.3,30.03,ESE,105,2.0,4.0,61,0.00,,---,0.00,VWS V14.01,2013-08-08 14:37:00,
2013-08-08 08:38:00,54.6,41.4,30.03,ESE,105,0.0,3.0,61,0.00,,---,0.00,VWS V14.01,2013-08-08 14:38:00,
2013-08-08 08:39:00,54.7,41.5,30.03,ESE,105,1.0,1.0,61,0.00,,---,0.00,VWS V14.01,2013-08-08 14:39:00,
2013-08-08 08:40:00,54.8,42.0,30.03,ESE,105,2.0,5.0,62,0.00,,---,0.00,VWS V14.01,2013-08-08 14:40:00,
2013-08-08 08:41:00,54.8,42.0,30.03,ESE,105,2.0,5.0,62,0.00,,---,0.00,VWS V14.01,2013-08-08 14:41:00,
2013-08-08 08:42:00,55.0,41.8,30.03,ESE,105,1.0,2.0,61,0.00,,---,0.00,VWS V14.01,2013-08-08 14:42:00,
2013-08-08 08:43:00,55.0,41.8,30.03,ESE,105,1.0,4.0,61,0.00,,---,0.00,VWS V14.01,2013-08-08 14:43:00,
2013-08-08 08:44:00,55.2,42.8,30.03,ESE,105,0.0,2.0,63,0.00,,---,0.00,VWS V14.01,2013-08-08 14:44:00,
2013-08-08 08:45:00,55.3,42.5,30.03,ESE,105,2.0,5.0,62,0.00,,---,0.00,VWS V14.01,2013-08-08 14:45:00,
2013-08-08 08:46:00,55.3,42.5,30.03,ESE,105,2.0,5.0,62,0.00,,---,0.00,VWS V14.01,2013-08-08 14:46:00,
2013-08-08 08:47:00,55.5,42.3,30.03,ESE,105,0.0,4.0,61,0.00,,---,0.00,VWS V14.01,2013-08-08 14:47:00,
2013-08-08 08:48:00,55.7,42.5,30.03,ESE,105,2.0,2.0,61,0.00,,---,0.00,VWS V14.01,2013-08-08 14:48:00,
2013-08-08 08:49:00,55.8,42.6,30.03,ESE,105,0.0,2.0,61,0.00,,---,0.00,VWS V14.01,2013-08-08 14:49:00,
2013-08-08 08:50:00,55.9,43.5,30.03,ESE,105,0.0,2.0,63,0.00,,---,0.00,VWS V14.01,2013-08-08 14:50:00,
2013-08-08 08:51:00,55.9,43.5,30.03,ESE,105,0.0,2.0,63,0.00,,---,0.00,VWS V14.01,2013-08-08 14:51:00,
2013-08-08 08:52:00,56.1,42.4,30.03,ESE,105,0.0,2.0,60,0.00,,---,0.00,VWS V14.01,2013-08-08 14:52:00,
2013-08-08 08:53:00,56.3,42.6,30.03,ESE,105,1.0,2.0,60,0.00,,---,0.00,VWS V14.01,2013-08-08 14:53:00,
2013-08-08 08:54:00,56.4,42.7,30.03,ESE,105,1.0,2.0,60,0.00,,---,0.00,VWS V14.01,2013-08-08 14:54:00,
2013-08-08 08:55:00,56.6,43.3,30.03,ESE,105,4.0,4.0,61,0.00,,---,0.00,VWS V14.01,2013-08-08 14:55:00,
2013-08-08 08:56:00,56.6,43.3,30.03,ESE,105,4.0,4.0,61,0.00,,---,0.00,VWS V14.01,2013-08-08 14:56:00,
2013-08-08 08:57:00,56.8,42.6,30.03,ESE,105,4.0,5.0,59,0.00,,---,0.00,VWS V14.01,2013-08-08 14:57:00,
2013-08-08 08:58:00,56.8,43.1,30.03,ESE,105,5.0,5.0,60,0.00,,---,0.00,VWS V14.01,2013-08-08 14:58:00,
2013-08-08 08:59:00,56.9,42.7,30.03,ESE,105,1.0,5.0,59,0.00,,---,0.00,VWS V14.01,2013-08-08 14:59:00,
2013-08-08 09:00:00,56.9,42.7,30.03,ESE,105,2.0,5.0,59,0.00,,---,0.00,VWS V14.01,2013-08-08 15:00:00,
2013-08-08 09:01:00,56.9,42.7,30.03,ESE,105,2.0,5.0,59,0.00,,---,0.00,VWS V14.01,2013-08-08 15:01:00,
2013-08-08 09:02:00,57.0,42.8,30.03,ESE,105,1.0,4.0,59,0.00,,---,0.00,VWS V14.01,2013-08-08 15:02:00,
2013-08-08 09:03:00,57.0,42.8,30.03,ESE,105,4.0,5.0,59,0.00,,---,0.00,VWS V14.01,2013-08-08 15:03:00,
2013-08-08 09:04:00,57.0,42.8,30.03,ESE,105,1.0,4.0,59,0.00,,---,0.00,VWS V14.01,2013-08-08 15:04:00,
2013-08-08 09:05:00,57.0,43.3,30.03,ESE,105,2.0,2.0,60,0.00,,---,0.00,VWS V14.01,2013-08-08 15:05:00,
2013-08-08 09:06:00,57.0,43.3,30.03,ESE,105,2.0,2.0,60,0.00,,---,0.00,VWS V14.01,2013-08-08 15:06:00,
2013-08-08 09:07:00,57.2,43.0,30.02,ESE,105,1.0,4.0,59,0.00,,---,0.00,VWS V14.01,2013-08-08 15:07:00,
2013-08-08 09:08:00,57.3,42.7,30.03,ESE,105,1.0,2.0,58,0.00,,---,0.00,VWS V14.01,2013-08-08 15:08:00,
2013-08-08 09:09:00,57.4,42.8,30.03,ESE,105,5.0,5.0,58,0.00,,---,0.00,VWS V14.01,2013-08-08 15:09:00,
2013-08-08 09:10:00,57.5,41.9,30.03,ESE,105,2.0,5.0,56,0.00,,---,0.00,VWS V14.01,2013-08-08 15:10:00,
2013-08-08 09:11:00,57.5,41.9,30.03,ESE,105,2.0,5.0,56,0.00,,---,0.00,VWS V14.01,2013-08-08 15:11:00,
2013-08-08 09:12:00,57.6,42.0,30.03,ESE,105,1.0,1.0,56,0.00,,---,0.00,VWS V14.01,2013-08-08 15:12:00,
2013-08-08 09:13:00,57.7,42.6,30.03,ESE,105,2.0,4.0,57,0.00,,---,0.00,VWS V14.01,2013-08-08 15:13:00,
2013-08-08 09:14:00,57.8,42.7,30.03,ESE,105,3.0,5.0,57,0.00,,---,0.00,VWS V14.01,2013-08-08 15:14:00,
2013-08-08 09:15:00,57.9,42.8,30.03,ESE,105,5.0,5.0,57,0.00,,---,0.00,VWS V14.01,2013-08-08 15:15:00,
2013-08-08 09:16:00,57.9,42.8,30.03,ESE,105,5.0,5.0,57,0.00,,---,0.00,VWS V14.01,2013-08-08 15:16:00,
2013-08-08 09:17:00,58.0,42.4,30.03,ESE,104,2.0,4.0,56,0.00,,---,0.00,VWS V14.01,2013-08-08 15:17:00,
2013-08-08 09:18:00,57.9,42.8,30.02,ESE,104,0.0,2.0,57,0.00,,---,0.00,VWS V14.01,2013-08-08 15:18:00,
2013-08-08 09:19:00,57.9,42.8,30.03,ESE,104,2.0,3.0,57,0.00,,---,0.00,VWS V14.01,2013-08-08 15:19:00,
2013-08-08 09:20:00,58.0,42.4,30.03,ESE,104,0.0,5.0,56,0.00,,---,0.00,VWS V14.01,2013-08-08 15:20:00,
2013-08-08 09:21:00,58.0,42.4,30.03,ESE,104,0.0,5.0,56,0.00,,---,0.00,VWS V14.01,2013-08-08 15:21:00,
2013-08-08 09:22:00,58.1,42.5,30.02,ESE,104,3.0,4.0,56,0.00,,---,0.00,VWS V14.01,2013-08-08 15:22:00,
2013-08-08 09:23:00,58.3,43.2,30.02,ESE,104,2.0,5.0,57,0.00,,---,0.00,VWS V14.01,2013-08-08 15:23:00,
2013-08-08 09:24:00,58.4,42.3,30.02,ESE,104,4.0,5.0,55,0.00,,---,0.00,VWS V14.01,2013-08-08 15:24:00,
2013-08-08 09:25:00,58.6,43.0,30.03,ESE,104,5.0,5.0,56,0.00,,---,0.00,VWS V14.01,2013-08-08 15:25:00,
2013-08-08 09:26:00,58.6,43.0,30.03,ESE,104,5.0,5.0,56,0.00,,---,0.00,VWS V14.01,2013-08-08 15:26:00,
2013-08-08 09:27:00,58.9,42.3,30.02,ESE,104,2.0,4.0,54,0.00,,---,0.00,VWS V14.01,2013-08-08 15:27:00,
2013-08-08 09:28:00,59.0,42.4,30.02,ESE,104,2.0,4.0,54,0.00,,---,0.00,VWS V14.01,2013-08-08 15:28:00,
2013-08-08 09:29:00,59.2,43.1,30.02,NE,51,4.0,5.0,55,0.00,,---,0.00,VWS V14.01,2013-08-08 15:29:00,
2013-08-08 09:30:00,59.5,42.9,30.02,East,88,7.0,7.0,54,0.00,,---,0.00,VWS V14.01,2013-08-08 15:30:00,
2013-08-08 09:31:00,59.5,42.9,30.02,East,88,7.0,7.0,54,0.00,,---,0.00,VWS V14.01,2013-08-08 15:31:00,
2013-08-08 09:32:00,59.7,42.1,30.02,East,95,3.0,6.0,52,0.00,,---,0.00,VWS V14.01,2013-08-08 15:32:00,
2013-08-08 09:33:00,59.7,42.6,30.02,East,95,1.0,3.0,53,0.00,,---,0.00,VWS V14.01,2013-08-08 15:33:00,
2013-08-08 09:34:00,59.8,42.7,30.02,East,95,3.0,3.0,53,0.00,,---,0.00,VWS V14.01,2013-08-08 15:34:00,
2013-08-08 09:35:00,59.8,42.7,30.02,East,95,4.0,5.0,53,0.00,,---,0.00,VWS V14.01,2013-08-08 15:35:00,
2013-08-08 09:36:00,59.8,42.7,30.02,East,95,4.0,5.0,53,0.00,,---,0.00,VWS V14.01,2013-08-08 15:36:00,
2013-08-08 09:37:00,59.8,42.2,30.02,East,95,4.0,6.0,52,0.00,,---,0.00,VWS V14.01,2013-08-08 15:37:00,
2013-08-08 09:38:00,59.9,43.2,30.02,East,85,7.0,7.0,54,0.00,,---,0.00,VWS V14.01,2013-08-08 15:38:00,
2013-08-08 09:39:00,60.0,42.8,30.02,ESE,103,3.0,7.0,53,0.00,,---,0.00,VWS V14.01,2013-08-08 15:39:00,
2013-08-08 09:40:00,60.0,42.8,30.02,East,95,4.0,8.0,53,0.00,,---,0.00,VWS V14.01,2013-08-08 15:40:00,
2013-08-08 09:41:00,60.0,42.8,30.02,East,95,4.0,8.0,53,0.00,,---,0.00,VWS V14.01,2013-08-08 15:41:00,
2013-08-08 09:42:00,60.2,43.5,30.02,ESE,113,4.0,7.0,54,0.00,,---,0.00,VWS V14.01,2013-08-08 15:42:00,
2013-08-08 09:43:00,60.2,43.5,30.02,East,101,6.0,7.0,54,0.00,,---,0.00,VWS V14.01,2013-08-08 15:43:00,
2013-08-08 09:44:00,60.3,43.1,30.02,SE,138,8.0,8.0,53,0.00,,---,0.00,VWS V14.01,2013-08-08 15:44:00,
2013-08-08 09:45:00,60.4,43.7,30.02,SE,132,3.0,8.0,54,0.00,,---,0.00,VWS V14.01,2013-08-08 15:45:00,
2013-08-08 09:46:00,60.4,43.7,30.02,SE,132,3.0,8.0,54,0.00,,---,0.00,VWS V14.01,2013-08-08 15:46:00,
2013-08-08 09:47:00,60.5,43.8,30.02,SE,144,4.0,4.0,54,0.00,,---,0.00,VWS V14.01,2013-08-08 15:47:00,
2013-08-08 09:48:00,60.6,44.4,30.02,ESE,113,4.0,8.0,55,0.00,,---,0.00,VWS V14.01,2013-08-08 15:48:00,
2013-08-08 09:49:00,60.7,44.0,30.02,ESE,107,5.0,6.0,54,0.00,,---,0.00,VWS V14.01,2013-08-08 15:49:00,
2013-08-08 09:50:00,60.8,44.1,30.02,ESE,123,1.0,7.0,54,0.00,,---,0.00,VWS V14.01,2013-08-08 15:50:00,
2013-08-08 09:51:00,60.8,44.1,30.02,ESE,123,1.0,7.0,54,0.00,,---,0.00,VWS V14.01,2013-08-08 15:51:00,
2013-08-08 09:52:00,60.9,44.6,30.02,ESE,118,6.0,7.0,55,0.00,,---,0.00,VWS V14.01,2013-08-08 15:52:00,
2013-08-08 09:53:00,61.0,44.7,30.02,ESE,115,7.0,8.0,55,0.00,,---,0.00,VWS V14.01,2013-08-08 15:53:00,
2013-08-08 09:54:00,61.1,44.3,30.02,SE,128,8.0,10.0,54,0.00,,---,0.00,VWS V14.01,2013-08-08 15:54:00,
2013-08-08 09:55:00,61.0,44.2,30.02,SE,128,5.0,9.0,54,0.00,,---,0.00,VWS V14.01,2013-08-08 15:55:00,
2013-08-08 09:56:00,61.0,44.2,30.02,SE,128,5.0,9.0,54,0.00,,---,0.00,VWS V14.01,2013-08-08 15:56:00,
2013-08-08 09:57:00,60.9,44.6,30.02,SE,124,6.0,8.0,55,0.00,,---,0.00,VWS V14.01,2013-08-08 15:57:00,
2013-08-08 09:58:00,60.8,44.5,30.02,ESE,105,9.0,10.0,55,0.00,,---,0.00,VWS V14.01,2013-08-08 15:58:00,
2013-08-08 09:59:00,60.5,44.7,30.02,East,97,6.0,11.0,56,0.00,,---,0.00,VWS V14.01,2013-08-08 15:59:00,
2013-08-08 10:00:00,60.2,44.5,30.02,ESE,102,10.0,10.0,56,0.00,,---,0.00,VWS V14.01,2013-08-08 16:00:00,
2013-08-08 10:01:00,60.2,44.5,30.02,ESE,102,10.0,10.0,56,0.00,,---,0.00,VWS V14.01,2013-08-08 16:01:00,
2013-08-08 10:02:00,59.5,43.8,30.02,ESE,113,11.0,11.0,56,0.00,,---,0.00,VWS V14.01,2013-08-08 16:02:00,
2013-08-08 10:03:00,59.3,44.1,30.02,ESE,115,7.0,11.0,57,0.00,,---,0.00,VWS V14.01,2013-08-08 16:03:00,
2013-08-08 10:04:00,59.1,44.3,30.02,ESE,105,5.0,8.0,58,0.00,,---,0.00,VWS V14.01,2013-08-08 16:04:00,
2013-08-08 10:05:00,58.9,44.2,30.02,SE,128,7.0,7.0,58,0.00,,---,0.00,VWS V14.01,2013-08-08 16:05:00,
2013-08-08 10:06:00,58.9,44.2,30.02,SE,128,7.0,7.0,58,0.00,,---,0.00,VWS V14.01,2013-08-08 16:06:00,
2013-08-08 10:07:00,58.9,45.1,30.02,SE,142,6.0,7.0,60,0.00,,---,0.00,VWS V14.01,2013-08-08 16:07:00,
2013-08-08 10:08:00,59.2,45.3,30.02,SE,131,11.0,11.0,60,0.00,,---,0.00,VWS V14.01,2013-08-08 16:08:00,
2013-08-08 10:09:00,59.4,45.1,30.02,SE,126,7.0,11.0,59,0.00,,---,0.00,VWS V14.01,2013-08-08 16:09:00,
2013-08-08 10:10:00,59.7,45.4,30.02,SE,145,6.0,8.0,59,0.00,,---,0.00,VWS V14.01,2013-08-08 16:10:00,
2013-08-08 10:11:00,59.7,45.4,30.02,SE,145,6.0,8.0,59,0.00,,---,0.00,VWS V14.01,2013-08-08 16:11:00,
2013-08-08 10:12:00,60.2,45.4,30.02,ESE,123,8.0,9.0,58,0.00,,---,0.00,VWS V14.01,2013-08-08 16:12:00,
2013-08-08 10:13:00,60.3,45.5,30.02,East,98,8.0,9.0,58,0.00,,---,0.00,VWS V14.01,2013-08-08 16:13:00,
2013-08-08 10:14:00,60.4,45.1,30.02,ESE,111,6.0,9.0,57,0.00,,---,0.00,VWS V14.01,2013-08-08 16:14:00,
2013-08-08 10:15:00,60.4,45.1,30.02,ESE,103,6.0,10.0,57,0.00,,---,0.00,VWS V14.01,2013-08-08 16:15:00,
2013-08-08 10:16:00,60.4,45.1,30.02,ESE,103,6.0,10.0,57,0.00,,---,0.00,VWS V14.01,2013-08-08 16:16:00,
2013-08-08 10:17:00,60.2,44.9,30.02,ESE,122,4.0,9.0,57,0.00,,---,0.00,VWS V14.01,2013-08-08 16:17:00,
2013-08-08 10:18:00,60.1,45.7,30.02,ESE,114,6.0,7.0,59,0.00,,---,0.00,VWS V14.01,2013-08-08 16:18:00,
2013-08-08 10:19:00,60.1,45.3,30.02,SE,134,4.0,9.0,58,0.00,,---,0.00,VWS V14.01,2013-08-08 16:19:00,
2013-08-08 10:20:00,60.2,45.8,30.02,East,101,7.0,7.0,59,0.00,,---,0.00,VWS V14.01,2013-08-08 16:20:00,
2013-08-08 10:21:00,60.2,45.8,30.02,East,101,7.0,7.0,59,0.00,,---,0.00,VWS V14.01,2013-08-08 16:21:00,
2013-08-08 10:22:00,60.3,45.9,30.02,SE,140,1.0,10.0,59,0.00,,---,0.00,VWS V14.01,2013-08-08 16:22:00,
2013-08-08 10:23:00,60.4,46.0,30.02,ESE,111,7.0,8.0,59,0.00,,---,0.00,VWS V14.01,2013-08-08 16:23:00,
2013-08-08 10:24:00,60.4,45.6,30.02,ESE,120,8.0,9.0,58,0.00,,---,0.00,VWS V14.01,2013-08-08 16:24:00,
2013-08-08 10:25:00,60.4,45.6,30.02,SE,131,5.0,8.0,58,0.00,,---,0.00,VWS V14.01,2013-08-08 16:25:00,
2013-08-08 10:26:00,60.4,45.6,30.02,SE,131,5.0,8.0,58,0.00,,---,0.00,VWS V14.01,2013-08-08 16:26:00,
2013-08-08 10:27:00,60.4,45.6,30.02,ESE,107,7.0,9.0,58,0.00,,---,0.00,VWS V14.01,2013-08-08 16:27:00,
2013-08-08 10:28:00,60.4,45.6,30.02,SE,128,5.0,7.0,58,0.00,,---,0.00,VWS V14.01,2013-08-08 16:28:00,
2013-08-08 10:29:00,60.5,46.6,30.02,SSE,155,3.0,7.0,60,0.00,,---,0.00,VWS V14.01,2013-08-08 16:29:00,
2013-08-08 10:30:00,60.6,46.7,30.02,SE,136,8.0,9.0,60,0.00,,---,0.00,VWS V14.01,2013-08-08 16:30:00,
2013-08-08 10:31:00,60.6,46.7,30.02,SE,136,8.0,9.0,60,0.00,,---,0.00,VWS V14.01,2013-08-08 16:31:00,
2013-08-08 10:32:00,61.0,47.0,30.02,ESE,123,6.0,8.0,60,0.00,,---,0.00,VWS V14.01,2013-08-08 16:32:00,
2013-08-08 10:33:00,61.2,46.8,30.02,SE,134,9.0,9.0,59,0.00,,---,0.00,VWS V14.01,2013-08-08 16:33:00,
2013-08-08 10:34:00,61.4,47.0,30.02,SSE,147,9.0,11.0,59,0.00,,---,0.00,VWS V14.01,2013-08-08 16:34:00,
2013-08-08 10:35:00,61.5,46.6,30.02,SE,126,9.0,10.0,58,0.00,,---,0.00,VWS V14.01,2013-08-08 16:35:00,
2013-08-08 10:36:00,61.5,46.6,30.02,SE,126,9.0,10.0,58,0.00,,---,0.00,VWS V14.01,2013-08-08 16:36:00,
2013-08-08 10:37:00,61.6,47.2,30.02,ESE,116,7.0,9.0,59,0.00,,---,0.00,VWS V14.01,2013-08-08 16:37:00,
2013-08-08 10:38:00,61.6,46.7,30.02,SE,142,9.0,10.0,58,0.00,,---,0.00,VWS V14.01,2013-08-08 16:38:00,
2013-08-08 10:39:00,61.6,46.7,30.02,ESE,119,7.0,9.0,58,0.00,,---,0.00,VWS V14.01,2013-08-08 16:39:00,
2013-08-08 10:40:00,61.5,46.6,30.02,ESE,119,7.0,9.0,58,0.00,,---,0.00,VWS V14.01,2013-08-08 16:40:00,
2013-08-08 10:41:00,61.5,46.6,30.02,ESE,119,7.0,9.0,58,0.00,,---,0.00,VWS V14.01,2013-08-08 16:41:00,
2013-08-08 10:42:00,61.3,46.9,30.02,ESE,116,5.0,7.0,59,0.00,,---,0.00,VWS V14.01,2013-08-08 16:42:00,
2013-08-08 10:43:00,61.2,46.8,30.02,ESE,110,4.0,8.0,59,0.00,,---,0.00,VWS V14.01,2013-08-08 16:43:00,
2013-08-08 10:44:00,61.1,47.1,30.02,SE,126,7.0,8.0,60,0.00,,---,0.00,VWS V14.01,2013-08-08 16:44:00,
2013-08-08 10:45:00,61.1,47.1,30.02,ESE,115,5.0,8.0,60,0.00,,---,0.00,VWS V14.01,2013-08-08 16:45:00,
2013-08-08 10:46:00,61.1,47.1,30.02,ESE,115,5.0,8.0,60,0.00,,---,0.00,VWS V14.01,2013-08-08 16:46:00,
2013-08-08 10:47:00,61.1,47.6,30.02,SSE,157,7.0,9.0,61,0.00,,---,0.00,VWS V14.01,2013-08-08 16:47:00,
2013-08-08 10:48:00,61.3,47.8,30.02,SSE,154,1.0,7.0,61,0.00,,---,0.00,VWS V14.01,2013-08-08 16:48:00,
2013-08-08 10:49:00,61.4,47.4,30.02,SE,130,8.0,9.0,60,0.00,,---,0.00,VWS V14.01,2013-08-08 16:49:00,
2013-08-08 10:50:00,61.5,47.5,30.02,ESE,109,5.0,9.0,60,0.00,,---,0.00,VWS V14.01,2013-08-08 16:50:00,
2013-08-08 10:51:00,61.5,47.5,30.02,ESE,109,7.0,9.0,60,0.00,,---,0.00,VWS V14.01,2013-08-08 16:51:00,
2013-08-08 10:52:00,61.3,46.9,30.02,ESE,118,3.0,9.0,59,0.00,,---,0.00,VWS V14.01,2013-08-08 16:52:00,
2013-08-08 10:53:00,61.3,47.3,30.02,ESE,121,6.0,8.0,60,0.00,,---,0.00,VWS V14.01,2013-08-08 16:53:00,
2013-08-08 10:54:00,61.3,48.2,30.02,ESE,113,4.0,8.0,62,0.00,,---,0.00,VWS V14.01,2013-08-08 16:54:00,
2013-08-08 10:55:00,61.2,47.2,30.02,ESE,110,8.0,9.0,60,0.00,,---,0.00,VWS V14.01,2013-08-08 16:55:00,
2013-08-08 10:56:00,61.2,47.2,30.02,ESE,110,8.0,9.0,60,0.00,,---,0.00,VWS V14.01,2013-08-08 16:56:00,
2013-08-08 10:57:00,61.0,47.5,30.02,ESE,112,6.0,10.0,61,0.00,,---,0.00,VWS V14.01,2013-08-08 16:57:00,
2013-08-08 10:58:00,60.9,47.4,30.02,SE,135,6.0,7.0,61,0.00,,---,0.00,VWS V14.01,2013-08-08 16:58:00,
2013-08-08 10:59:00,60.8,47.7,30.01,ESE,108,10.0,10.0,62,0.00,,---,0.00,VWS V14.01,2013-08-08 16:59:00,
2013-08-08 11:00:00,60.7,47.2,30.02,SE,128,4.0,11.0,61,0.00,,---,0.00,VWS V14.01,2013-08-08 17:00:00,
2013-08-08 11:01:00,60.7,47.2,30.02,SE,127,6.0,11.0,61,0.00,,---,0.00,VWS V14.01,2013-08-08 17:01:00,
2013-08-08 11:02:00,60.5,47.4,30.02,ESE,122,7.0,10.0,62,0.00,,---,0.00,VWS V14.01,2013-08-08 17:02:00,
2013-08-08 11:03:00,60.5,47.4,30.01,SE,129,9.0,10.0,62,0.00,,---,0.00,VWS V14.01,2013-08-08 17:03:00,
2013-08-08 11:04:00,60.5,47.4,30.01,ESE,111,7.0,9.0,62,0.00,,---,0.00,VWS V14.01,2013-08-08 17:04:00,
2013-08-08 11:05:00,60.5,47.4,30.01,ESE,103,5.0,9.0,62,0.00,,---,0.00,VWS V14.01,2013-08-08 17:05:00,
2013-08-08 11:06:00,60.5,47.4,30.01,ESE,103,5.0,9.0,62,0.00,,---,0.00,VWS V14.01,2013-08-08 17:06:00,
2013-08-08 11:07:00,60.5,47.9,30.01,SE,132,5.0,9.0,63,0.00,,---,0.00,VWS V14.01,2013-08-08 17:07:00,
2013-08-08 11:08:00,60.5,47.4,30.01,SE,126,5.0,8.0,62,0.00,,---,0.00,VWS V14.01,2013-08-08 17:08:00,
2013-08-08 11:09:00,60.4,47.3,30.01,SE,138,7.0,10.0,62,0.00,,---,0.00,VWS V14.01,2013-08-08 17:09:00,
2013-08-08 11:10:00,60.4,47.3,30.01,SE,125,6.0,10.0,62,0.00,,---,0.00,VWS V14.01,2013-08-08 17:10:00,
2013-08-08 11:11:00,60.4,47.3,30.01,SE,125,6.0,10.0,62,0.00,,---,0.00,VWS V14.01,2013-08-08 17:11:00,
2013-08-08 11:12:00,60.2,47.6,30.01,SE,144,7.0,9.0,63,0.00,,---,0.00,VWS V14.01,2013-08-08 17:12:00,
2013-08-08 11:13:00,60.2,47.6,30.01,SE,130,8.0,11.0,63,0.00,,---,0.00,VWS V14.01,2013-08-08 17:13:00,
2013-08-08 11:14:00,60.1,47.9,30.01,ESE,109,7.0,9.0,64,0.00,,---,0.00,VWS V14.01,2013-08-08 17:14:00,
2013-08-08 11:15:00,60.1,47.9,30.01,ESE,114,7.0,10.0,64,0.00,,---,0.00,VWS V14.01,2013-08-08 17:15:00,
2013-08-08 11:16:00,60.1,47.9,30.01,ESE,114,7.0,10.0,64,0.00,,---,0.00,VWS V14.01,2013-08-08 17:16:00,
2013-08-08 11:17:00,59.8,48.0,30.01,SSE,154,9.0,14.0,65,0.00,,---,0.00,VWS V14.01,2013-08-08 17:17:00,
2013-08-08 11:18:00,59.7,47.9,30.01,East,86,7.0,10.0,65,0.00,,---,0.00,VWS V14.01,2013-08-08 17:18:00,
2013-08-08 11:19:00,59.6,48.2,30.01,ESE,123,5.0,11.0,66,0.00,,---,0.00,VWS V14.01,2013-08-08 17:19:00,
2013-08-08 11:20:00,59.5,48.2,30.01,SE,126,1.0,12.0,66,0.00,,---,0.00,VWS V14.01,2013-08-08 17:20:00,
2013-08-08 11:21:00,59.5,48.2,30.01,SE,126,1.0,12.0,66,0.00,,---,0.00,VWS V14.01,2013-08-08 17:21:00,
2013-08-08 11:22:00,59.3,48.0,30.01,ESE,117,3.0,10.0,66,0.00,,---,0.00,VWS V14.01,2013-08-08 17:22:00,
2013-08-08 11:23:00,59.2,47.9,30.01,ESE,114,5.0,7.0,66,0.00,,---,0.00,VWS V14.01,2013-08-08 17:23:00,
2013-08-08 11:24:00,59.1,48.2,30.01,East,95,5.0,9.0,67,0.00,,---,0.00,VWS V14.01,2013-08-08 17:24:00,
2013-08-08 11:25:00,59.0,48.1,30.01,ESE,104,3.0,7.0,67,0.00,,---,0.00,VWS V14.01,2013-08-08 17:25:00,
2013-08-08 11:26:00,58.9,48.4,30.01,ESE,104,4.0,7.0,68,0.00,,---,0.00,VWS V14.01,2013-08-08 17:26:00,
2013-08-08 11:27:00,59.0,48.1,30.01,ESE,104,3.0,3.0,67,0.00,,---,0.00,VWS V14.01,2013-08-08 17:27:00,
2013-08-08 11:28:00,58.7,48.2,30.01,ESE,107,4.0,8.0,68,0.00,,---,0.00,VWS V14.01,2013-08-08 17:28:00,
2013-08-08 11:29:00,58.7,48.2,30.01,ESE,107,5.0,9.0,68,0.00,,---,0.00,VWS V14.01,2013-08-08 17:29:00,
2013-08-08 11:30:00,58.7,48.6,30.01,ESE,108,4.0,11.0,69,0.00,,---,0.00,VWS V14.01,2013-08-08 17:30:00,
2013-08-08 11:31:00,58.7,48.6,30.01,ESE,107,7.0,8.0,69,0.00,,---,0.00,VWS V14.01,2013-08-08 17:31:00,
2013-08-08 11:32:00,58.7,48.6,30.01,East,99,8.0,8.0,69,0.00,,---,0.00,VWS V14.01,2013-08-08 17:32:00,
2013-08-08 11:33:00,58.6,48.5,30.01,SSE,150,6.0,7.0,69,0.00,,---,0.00,VWS V14.01,2013-08-08 17:33:00,
2013-08-08 11:34:00,58.6,48.9,30.01,SE,134,8.0,8.0,70,0.00,,---,0.00,VWS V14.01,2013-08-08 17:34:00,
2013-08-08 11:35:00,58.6,48.9,30.01,SE,131,6.0,8.0,70,0.00,,---,0.00,VWS V14.01,2013-08-08 17:35:00,
2013-08-08 11:36:00,58.6,48.9,30.01,ESE,115,4.0,6.0,70,0.00,,---,0.00,VWS V14.01,2013-08-08 17:36:00,
2013-08-08 11:37:00,58.6,48.9,30.01,SE,131,4.0,6.0,70,0.00,,---,0.00,VWS V14.01,2013-08-08 17:37:00,
2013-08-08 11:38:00,58.5,48.8,30.01,ESE,123,5.0,7.0,70,0.00,,---,0.00,VWS V14.01,2013-08-08 17:38:00,
2013-08-08 11:39:00,58.5,48.8,30.01,SE,124,5.0,6.0,70,0.00,,---,0.00,VWS V14.01,2013-08-08 17:39:00,
2013-08-08 11:40:00,58.5,48.8,30.01,ESE,119,5.0,6.0,70,0.00,,---,0.00,VWS V14.01,2013-08-08 17:40:00,
2013-08-08 11:41:00,58.4,49.0,30.01,ESE,111,7.0,7.0,71,0.00,,---,0.00,VWS V14.01,2013-08-08 17:41:00,
2013-08-08 11:42:00,58.5,49.1,30.01,ESE,118,1.0,5.0,71,0.00,,---,0.00,VWS V14.01,2013-08-08 17:42:00,
2013-08-08 11:43:00,58.5,49.5,30.01,SE,129,5.0,7.0,72,0.00,,---,0.00,VWS V14.01,2013-08-08 17:43:00,
2013-08-08 11:44:00,58.6,49.6,30.01,SE,128,5.0,6.0,72,0.00,,---,0.00,VWS V14.01,2013-08-08 17:44:00,
2013-08-08 11:45:00,58.6,49.6,30.01,ESE,115,6.0,9.0,72,0.00,,---,0.00,VWS V14.01,2013-08-08 17:45:00,
2013-08-08 11:46:00,58.6,49.6,30.01,SE,130,5.0,10.0,72,0.00,,---,0.00,VWS V14.01,2013-08-08 17:46:00,
2013-08-08 11:47:00,58.6,49.6,30.01,SSE,148,6.0,8.0,72,0.00,,---,0.00,VWS V14.01,2013-08-08 17:47:00,
2013-08-08 11:48:00,58.7,50.1,30.01,ESE,116,7.0,8.0,73,0.00,,---,0.00,VWS V14.01,2013-08-08 17:48:00,
2013-08-08 11:49:00,58.7,49.7,30.01,ESE,122,5.0,7.0,72,0.00,,---,0.00,VWS V14.01,2013-08-08 17:49:00,
2013-08-08 11:50:00,58.7,50.1,30.00,ESE,120,4.0,9.0,73,0.00,,---,0.00,VWS V14.01,2013-08-08 17:50:00,
2013-08-08 11:51:00,58.7,50.1,30.00,SE,142,4.0,7.0,73,0.00,,---,0.00,VWS V14.01,2013-08-08 17:51:00,
2013-08-08 11:52:00,58.7,50.1,30.00,SE,139,4.0,7.0,73,0.00,,---,0.00,VWS V14.01,2013-08-08 17:52:00,
2013-08-08 11:53:00,58.7,50.1,30.00,SE,134,9.0,9.0,73,0.00,,---,0.00,VWS V14.01,2013-08-08 17:53:00,
2013-08-08 11:54:00,58.7,50.1,30.00,SE,127,9.0,10.0,73,0.00,,---,0.00,VWS V14.01,2013-08-08 17:54:00,
2013-08-08 11:55:00,58.7,49.7,30.00,ESE,123,7.0,9.0,72,0.00,,---,0.00,VWS V14.01,2013-08-08 17:55:00,
2013-08-08 11:56:00,58.6,49.6,30.00,ESE,113,5.0,7.0,72,0.00,,---,0.00,VWS V14.01,2013-08-08 17:56:00,
2013-08-08 11:57:00,58.7,49.7,30.00,ESE,106,3.0,7.0,72,0.00,,---,0.00,VWS V14.01,2013-08-08 17:57:00,
2013-08-08 11:58:00,58.6,50.0,30.00,East,100,8.0,8.0,73,0.00,,---,0.00,VWS V14.01,2013-08-08 17:58:00,
2013-08-08 11:59:00,58.6,50.0,30.00,SE,146,4.0,8.0,73,0.00,,---,0.00,VWS V14.01,2013-08-08 17:59:00,
2013-08-08 12:00:00,58.5,49.9,30.00,ESE,121,6.0,9.0,73,0.00,,---,0.00,VWS V14.01,2013-08-08 18:00:00,
2013-08-08 12:01:00,58.5,49.9,30.00,ESE,113,5.0,7.0,73,0.00,,---,0.00,VWS V14.01,2013-08-08 18:01:00,
2013-08-08 12:02:00,58.5,49.9,30.00,SE,136,5.0,7.0,73,0.00,,---,0.00,VWS V14.01,2013-08-08 18:02:00,
2013-08-08 12:03:00,58.4,49.8,30.00,SE,140,7.0,11.0,73,0.00,,---,0.00,VWS V14.01,2013-08-08 18:03:00,
2013-08-08 12:04:00,58.3,49.7,30.00,ESE,122,6.0,7.0,73,0.00,,---,0.00,VWS V14.01,2013-08-08 18:04:00,
2013-08-08 12:05:00,58.3,50.1,30.00,ESE,115,6.0,9.0,74,0.00,,---,0.00,VWS V14.01,2013-08-08 18:05:00,
2013-08-08 12:06:00,58.3,50.1,30.00,SSE,155,8.0,8.0,74,0.00,,---,0.00,VWS V14.01,2013-08-08 18:06:00,
2013-08-08 12:07:00,58.3,49.7,30.00,SE,133,3.0,7.0,73,0.00,,---,0.00,VWS V14.01,2013-08-08 18:07:00,
2013-08-08 12:08:00,58.3,50.1,30.00,SE,135,6.0,9.0,74,0.00,,---,0.00,VWS V14.01,2013-08-08 18:08:00,
2013-08-08 12:09:00,58.3,50.1,30.00,SE,136,1.0,6.0,74,0.00,,---,0.00,VWS V14.01,2013-08-08 18:09:00,
2013-08-08 12:10:00,58.3,50.1,30.00,SE,140,8.0,8.0,74,0.00,,---,0.00,VWS V14.01,2013-08-08 18:10:00,
2013-08-08 12:11:00,58.3,49.7,30.00,SE,129,2.0,8.0,73,0.00,,---,0.00,VWS V14.01,2013-08-08 18:11:00,
2013-08-08 12:12:00,58.3,49.7,30.00,SE,129,4.0,8.0,73,0.00,,---,0.00,VWS V14.01,2013-08-08 18:12:00,
2013-08-08 12:13:00,58.4,50.2,30.00,SE,135,9.0,9.0,74,0.00,,---,0.00,VWS V14.01,2013-08-08 18:13:00,
2013-08-08 12:14:00,58.3,50.1,30.01,SE,130,6.0,9.0,74,0.00,,---,0.00,VWS V14.01,2013-08-08 18:14:00,
2013-08-08 12:15:00,58.3,50.1,30.01,SE,125,6.0,10.0,74,0.00,,---,0.00,VWS V14.01,2013-08-08 18:15:00,
2013-08-08 12:16:00,58.3,50.1,30.01,SE,128,5.0,11.0,74,0.00,,---,0.00,VWS V14.01,2013-08-08 18:16:00,
2013-08-08 12:17:00,58.3,50.1,30.01,SE,128,8.0,11.0,74,0.00,,---,0.00,VWS V14.01,2013-08-08 18:17:00,
2013-08-08 12:18:00,58.1,49.9,30.01,SE,128,4.0,10.0,74,0.00,,---,0.00,VWS V14.01,2013-08-08 18:18:00,
2013-08-08 12:19:00,58.0,49.8,30.00,SSE,157,6.0,11.0,74,0.00,,---,0.00,VWS V14.01,2013-08-08 18:19:00,
2013-08-08 12:20:00,57.9,49.7,30.00,SE,139,5.0,9.0,74,0.00,,---,0.00,VWS V14.01,2013-08-08 18:20:00,
2013-08-08 12:21:00,57.9,49.7,30.00,ESE,114,7.0,9.0,74,0.00,,---,0.00,VWS V14.01,2013-08-08 18:21:00,
2013-08-08 12:22:00,57.9,49.7,30.00,ESE,114,7.0,9.0,74,0.00,,---,0.00,VWS V14.01,2013-08-08 18:22:00,
2013-08-08 12:23:00,57.8,49.9,30.00,ESE,111,7.0,10.0,75,0.00,,---,0.00,VWS V14.01,2013-08-08 18:23:00,
2013-08-08 12:24:00,57.7,49.8,30.00,SE,132,6.0,10.0,75,0.00,,---,0.00,VWS V14.01,2013-08-08 18:24:00,
2013-08-08 12:25:00,57.6,49.7,30.00,SE,130,12.0,13.0,75,0.00,,---,0.00,VWS V14.01,2013-08-08 18:25:00,
2013-08-08 12:26:00,57.6,49.7,30.00,East,99,6.0,12.0,75,0.00,,---,0.00,VWS V14.01,2013-08-08 18:26:00,
2013-08-08 12:27:00,57.6,49.8,30.00,East,99,6.0,12.0,75,0.00,,---,0.00,VWS V14.01,2013-08-08 18:27:00,
2013-08-08 12:28:00,57.3,49.5,30.00,SE,138,2.0,7.0,75,0.00,,---,0.00,VWS V14.01,2013-08-08 18:28:00,
2013-08-08 12:29:00,57.3,49.5,30.00,SE,126,0.0,9.0,75,0.00,,---,0.00,VWS V14.01,2013-08-08 18:29:00,
2013-08-08 12:30:00,57.2,49.7,30.00,SE,138,8.0,9.0,76,0.00,,---,0.00,VWS V14.01,2013-08-08 18:30:00,
2013-08-08 12:31:00,57.2,49.7,30.00,East,101,7.0,8.0,76,0.00,,---,0.00,VWS V14.01,2013-08-08 18:31:00,
2013-08-08 12:32:00,57.2,49.7,30.00,East,101,7.0,8.0,76,0.00,,---,0.00,VWS V14.01,2013-08-08 18:32:00,
2013-08-08 12:33:00,57.2,49.7,30.00,SE,132,8.0,9.0,76,0.00,,---,0.00,VWS V14.01,2013-08-08 18:33:00,
2013-08-08 12:34:00,57.2,49.7,30.00,SE,128,5.0,9.0,76,0.00,,---,0.00,VWS V14.01,2013-08-08 18:34:00,
2013-08-08 12:35:00,57.2,49.7,30.00,SE,124,7.0,7.0,76,0.00,,---,0.00,VWS V14.01,2013-08-08 18:35:00,
2013-08-08 12:36:00,57.2,49.7,30.00,ESE,109,1.0,9.0,76,0.00,,---,0.00,VWS V14.01,2013-08-08 18:36:00,
2013-08-08 12:37:00,57.1,49.6,30.00,ESE,108,1.0,9.0,76,0.00,,---,0.00,VWS V14.01,2013-08-08 18:37:00,
2013-08-08 12:38:00,57.1,49.6,30.00,ESE,119,2.0,10.0,76,0.00,,---,0.00,VWS V14.01,2013-08-08 18:38:00,
2013-08-08 12:39:00,57.1,49.6,30.00,SSE,147,6.0,8.0,76,0.00,,---,0.00,VWS V14.01,2013-08-08 18:39:00,
2013-08-08 12:40:00,57.1,49.6,30.00,ESE,119,7.0,8.0,76,0.00,,---,0.00,VWS V14.01,2013-08-08 18:40:00,
2013-08-08 12:41:00,57.1,49.6,30.01,SE,144,5.0,9.0,76,0.00,,---,0.00,VWS V14.01,2013-08-08 18:41:00,
2013-08-08 12:42:00,57.1,49.6,30.00,SE,144,6.0,9.0,76,0.00,,---,0.00,VWS V14.01,2013-08-08 18:42:00,
2013-08-08 12:43:00,57.2,50.1,30.01,SE,124,2.0,6.0,77,0.00,,---,0.00,VWS V14.01,2013-08-08 18:43:00,
2013-08-08 12:44:00,57.2,49.7,30.01,SE,131,2.0,9.0,76,0.00,,---,0.00,VWS V14.01,2013-08-08 18:44:00,
2013-08-08 12:45:00,57.2,49.7,30.01,SE,131,0.0,3.0,76,0.00,,---,0.00,VWS V14.01,2013-08-08 18:45:00,
2013-08-08 12:46:00,57.3,49.8,30.01,East,85,2.0,4.0,76,0.00,,---,0.00,VWS V14.01,2013-08-08 18:46:00,
2013-08-08 12:47:00,57.3,49.8,30.01,SE,136,2.0,7.0,76,0.00,,---,0.00,VWS V14.01,2013-08-08 18:47:00,
2013-08-08 12:48:00,57.3,49.8,30.01,East,85,4.0,5.0,76,0.00,,---,0.00,VWS V14.01,2013-08-08 18:48:00,
2013-08-08 12:49:00,57.3,49.8,30.01,SSE,166,0.0,7.0,76,0.00,,---,0.00,VWS V14.01,2013-08-08 18:49:00,
2013-08-08 12:50:00,57.2,49.7,30.01,SSE,166,0.0,4.0,76,0.00,,---,0.00,VWS V14.01,2013-08-08 18:50:00,
2013-08-08 12:51:00,57.2,50.1,30.01,SSE,161,3.0,5.0,77,0.00,,---,0.00,VWS V14.01,2013-08-08 18:51:00,
2013-08-08 12:52:00,57.2,49.7,30.01,SW,228,3.0,6.0,76,0.00,,---,0.00,VWS V14.01,2013-08-08 18:52:00,
2013-08-08 12:53:00,57.2,49.7,30.01,SSE,161,1.0,4.0,76,0.00,,---,0.00,VWS V14.01,2013-08-08 18:53:00,
2013-08-08 12:54:00,57.2,49.7,30.01,SW,228,1.0,1.0,76,0.00,,---,0.00,VWS V14.01,2013-08-08 18:54:00,
2013-08-08 12:55:00,57.2,49.7,30.01,SW,227,5.0,5.0,76,0.00,,---,0.00,VWS V14.01,2013-08-08 18:55:00,
2013-08-08 12:56:00,57.2,49.7,30.01,South,175,2.0,6.0,76,0.00,,---,0.00,VWS V14.01,2013-08-08 18:56:00,
2013-08-08 12:57:00,57.2,49.7,30.01,South,175,1.0,5.0,76,0.00,,---,0.00,VWS V14.01,2013-08-08 18:57:00,
2013-08-08 12:58:00,57.2,49.7,30.01,South,175,2.0,5.0,76,0.00,,---,0.00,VWS V14.01,2013-08-08 18:58:00,
2013-08-08 12:59:00,57.2,49.7,30.01,South,175,0.0,4.0,76,0.00,,---,0.00,VWS V14.01,2013-08-08 18:59:00,
2013-08-08 13:00:00,57.2,49.7,30.01,South,175,0.0,1.0,76,0.00,,---,0.00,VWS V14.01,2013-08-08 19:00:00,
2013-08-08 13:01:00,57.2,49.7,30.01,South,175,0.0,2.0,76,0.00,,---,0.00,VWS V14.01,2013-08-08 19:01:00,
2013-08-08 13:02:00,57.2,49.7,30.01,South,175,0.0,0.0,76,0.00,,---,0.00,VWS V14.01,2013-08-08 19:02:00,
2013-08-08 13:03:00,57.2,49.7,30.01,South,175,0.0,0.0,76,0.00,,---,0.00,VWS V14.01,2013-08-08 19:03:00,
2013-08-08 13:04:00,57.2,49.7,30.01,South,174,4.0,5.0,76,0.00,,---,0.00,VWS V14.01,2013-08-08 19:04:00,
2013-08-08 13:05:00,57.2,49.7,30.01,South,173,5.0,6.0,76,0.00,,---,0.00,VWS V14.01,2013-08-08 19:05:00,
2013-08-08 13:06:00,57.1,49.6,30.01,South,173,0.0,5.0,76,0.00,,---,0.00,VWS V14.01,2013-08-08 19:06:00,
2013-08-08 13:07:00,57.1,50.0,30.01,South,173,0.0,0.0,77,0.00,,---,0.00,VWS V14.01,2013-08-08 19:07:00,
2013-08-08 13:08:00,57.1,49.6,30.01,South,173,0.0,0.0,76,0.00,,---,0.00,VWS V14.01,2013-08-08 19:08:00,
2013-08-08 13:09:00,57.2,49.7,30.01,South,173,0.0,0.0,76,0.00,,---,0.00,VWS V14.01,2013-08-08 19:09:00,